| time (UTC) | temp F | wind direction | speed MPH | gust MPH | rain 1hr in | rain 24hr in | rain mn in | humidity % | barometer mb |
| 20260504040810 | 59 | 231 | 3.0 | 9.0 | 0.00 | 0.00 | 0.00 | 74 | 1012.7 |
| 20260504040707 | 59 | 226 | 4.0 | 9.0 | 0.00 | 0.00 | 0.00 | 74 | 1012.7 |
| 20260504040601 | 59 | 212 | 4.0 | 9.0 | 0.00 | 0.00 | 0.00 | 74 | 1012.7 |
| 20260504040534 | 59 | 230 | 4.0 | 9.0 | 0.00 | 0.00 | 0.00 | 74 | 1012.6 |
| 20260504040502 | 59 | 250 | 4.0 | 9.0 | 0.00 | 0.00 | 0.00 | 74 | 1012.6 |
| 20260504040402 | 59 | 255 | 3.0 | 9.0 | 0.00 | 0.00 | 0.00 | 74 | 1012.7 |
| 20260504040302 | 59 | 259 | 3.0 | 8.0 | 0.00 | 0.00 | 0.00 | 74 | 1012.6 |
| 20260504040201 | 59 | 210 | 4.0 | 9.0 | 0.00 | 0.00 | 0.00 | 74 | 1012.6 |
| 20260504040058 | 60 | 236 | 4.0 | 9.0 | 0.00 | 0.00 | 0.00 | 74 | 1012.5 |
| 20260504040047 | 60 | 215 | 3.0 | 9.0 | 0.00 | 0.00 | 0.00 | 74 | 1012.5 |
| 20260504035956 | 60 | 231 | 3.0 | 9.0 | 0.00 | 0.00 | 0.00 | 74 | 1012.5 |
| 20260504035856 | 60 | 224 | 3.0 | 9.0 | 0.00 | 0.00 | 0.00 | 74 | 1012.5 |
| 20260504035800 | 60 | 239 | 3.0 | 9.0 | 0.00 | 0.00 | 0.00 | 74 | 1012.5 |
| 20260504035756 | 60 | 255 | 3.0 | 9.0 | 0.00 | 0.00 | 0.00 | 74 | 1012.5 |
| 20260504035656 | 60 | 228 | 3.0 | 9.0 | 0.00 | 0.00 | 0.00 | 74 | 1012.5 |
| 20260504035645 | 60 | 250 | 3.0 | 9.0 | 0.00 | 0.00 | 0.00 | 74 | 1012.5 |
| 20260504035450 | 60 | 249 | 3.0 | 9.0 | 0.00 | 0.00 | 0.00 | 74 | 1012.5 |
| 20260504035349 | 60 | 278 | 3.0 | 9.0 | 0.00 | 0.00 | 0.00 | 74 | 1012.5 |
| 20260504035255 | 60 | 172 | 2.0 | 7.0 | 0.00 | 0.00 | 0.00 | 74 | 1012.4 |
| 20260504035250 | 60 | 289 | 2.0 | 9.0 | 0.00 | 0.00 | 0.00 | 74 | 1012.5 |
| 20260504035155 | 60 | 250 | 2.0 | 7.0 | 0.00 | 0.00 | 0.00 | 74 | 1012.5 |
| 20260504035144 | 60 | 172 | 2.0 | 7.0 | 0.00 | 0.00 | 0.00 | 74 | 1012.4 |
| 20260504034945 | 60 | 240 | 2.0 | 7.0 | 0.00 | 0.00 | 0.00 | 74 | 1012.5 |
| 20260504034844 | 60 | 247 | 2.0 | 7.0 | 0.00 | 0.00 | 0.00 | 74 | 1012.5 |
| 20260504034643 | 60 | 238 | 2.0 | 7.0 | 0.00 | 0.00 | 0.00 | 74 | 1012.4 |
| 20260504034542 | 60 | 253 | 2.0 | 7.0 | 0.00 | 0.00 | 0.00 | 74 | 1012.5 |
| 20260504034533 | 60 | 253 | 2.0 | 9.0 | 0.00 | 0.00 | 0.00 | 74 | 1012.5 |
| 20260504034438 | 60 | 224 | 2.0 | 10.0 | 0.00 | 0.00 | 0.00 | 74 | 1012.4 |
| 20260504034337 | 60 | 239 | 2.0 | 10.0 | 0.00 | 0.00 | 0.00 | 74 | 1012.4 |
| 20260504034238 | 60 | 248 | 2.0 | 10.0 | 0.00 | 0.00 | 0.00 | 74 | 1012.4 |
| 20260504034137 | 60 | 274 | 2.0 | 10.0 | 0.00 | 0.00 | 0.00 | 73 | 1012.3 |
| 20260504034034 | 60 | 215 | 1.0 | 10.0 | 0.00 | 0.00 | 0.00 | 73 | 1012.3 |
| 20260504033932 | 60 | 236 | 2.0 | 10.0 | 0.00 | 0.00 | 0.00 | 73 | 1012.3 |
| 20260504033832 | 60 | 242 | 2.0 | 10.0 | 0.00 | 0.00 | 0.00 | 73 | 1012.2 |
| 20260504033732 | 60 | 235 | 2.0 | 10.0 | 0.00 | 0.00 | 0.00 | 73 | 1012.3 |
| 20260504033631 | 60 | 284 | 2.0 | 10.0 | 0.00 | 0.00 | 0.00 | 73 | 1012.2 |
| 20260504033533 | 60 | 212 | 2.0 | 7.0 | 0.00 | 0.00 | 0.00 | 73 | 1012.3 |
| 20260504033431 | 60 | 238 | 2.0 | 7.0 | 0.00 | 0.00 | 0.00 | 73 | 1012.3 |
| 20260504033330 | 60 | 236 | 2.0 | 7.0 | 0.00 | 0.00 | 0.00 | 73 | 1012.3 |
| 20260504033226 | 60 | 248 | 2.0 | 7.0 | 0.00 | 0.00 | 0.00 | 73 | 1012.3 |
| 20260504033126 | 60 | 248 | 2.0 | 8.0 | 0.00 | 0.00 | 0.00 | 73 | 1012.3 |
| 20260504033022 | 60 | 273 | 2.0 | 8.0 | 0.00 | 0.00 | 0.00 | 73 | 1012.3 |
| 20260504032922 | 60 | 210 | 2.0 | 8.0 | 0.00 | 0.00 | 0.00 | 73 | 1012.3 |
| 20260504032820 | 60 | 231 | 2.0 | 8.0 | 0.00 | 0.00 | 0.00 | 73 | 1012.3 |
| 20260504032719 | 60 | 249 | 2.0 | 8.0 | 0.00 | 0.00 | 0.00 | 73 | 1012.2 |
| 20260504032619 | 60 | 210 | 2.0 | 8.0 | 0.00 | 0.00 | 0.00 | 72 | 1012.3 |
| 20260504032529 | 60 | 191 | 2.0 | 8.0 | 0.00 | 0.00 | 0.00 | 72 | 1012.2 |
| 20260504032520 | 60 | 236 | 2.0 | 8.0 | 0.00 | 0.00 | 0.00 | 72 | 1012.2 |
| 20260504032418 | 60 | 228 | 2.0 | 9.0 | 0.00 | 0.00 | 0.00 | 72 | 1012.2 |
| 20260504032323 | 60 | 228 | 2.0 | 9.0 | 0.00 | 0.00 | 0.00 | 72 | 1012.2 |
| 20260504032216 | 60 | 288 | 2.0 | 9.0 | 0.00 | 0.00 | 0.00 | 72 | 1012.1 |
| 20260504032113 | 60 | 243 | 2.0 | 9.0 | 0.00 | 0.00 | 0.00 | 72 | 1012.1 |
| 20260504032009 | 61 | 238 | 3.0 | 11.0 | 0.00 | 0.00 | 0.00 | 72 | 1012.1 |
| 20260504031908 | 61 | 226 | 2.0 | 11.0 | 0.00 | 0.00 | 0.00 | 72 | 1012.1 |
| 20260504031808 | 61 | 248 | 2.0 | 11.0 | 0.00 | 0.00 | 0.00 | 72 | 1012.0 |
| 20260504031708 | 61 | 195 | 2.0 | 11.0 | 0.00 | 0.00 | 0.00 | 72 | 1012.0 |
| 20260504031607 | 61 | 228 | 2.0 | 11.0 | 0.00 | 0.00 | 0.00 | 72 | 1012.1 |
| 20260504031525 | 61 | 234 | 2.0 | 11.0 | 0.00 | 0.00 | 0.00 | 72 | 1012.0 |
| 20260504031503 | 61 | 226 | 2.0 | 11.0 | 0.00 | 0.00 | 0.00 | 71 | 1012.0 |
| 20260504031404 | 61 | 240 | 2.0 | 11.0 | 0.00 | 0.00 | 0.00 | 71 | 1012.0 |
| 20260504031303 | 61 | 242 | 3.0 | 11.0 | 0.00 | 0.00 | 0.00 | 71 | 1012.1 |
| 20260504031204 | 61 | 214 | 3.0 | 11.0 | 0.00 | 0.00 | 0.00 | 71 | 1012.0 |
| 20260504031104 | 61 | 260 | 2.0 | 11.0 | 0.00 | 0.00 | 0.00 | 71 | 1012.0 |
| 20260504031026 | 61 | 239 | 3.0 | 11.0 | 0.00 | 0.00 | 0.00 | 71 | 1012.0 |
| 20260504031003 | 61 | 204 | 3.0 | 11.0 | 0.00 | 0.00 | 0.00 | 71 | 1012.0 |
| 20260504030904 | 61 | 218 | 3.0 | 11.0 | 0.00 | 0.00 | 0.00 | 71 | 1012.0 |
| 20260504030802 | 61 | 253 | 3.0 | 11.0 | 0.00 | 0.00 | 0.00 | 71 | 1012.1 |
| 20260504030702 | 61 | 316 | 3.0 | 11.0 | 0.00 | 0.00 | 0.00 | 71 | 1012.0 |
| 20260504030602 | 61 | 315 | 3.0 | 11.0 | 0.00 | 0.00 | 0.00 | 71 | 1012.0 |
| 20260504030526 | 61 | 252 | 3.0 | 11.0 | 0.00 | 0.00 | 0.00 | 71 | 1012.0 |
| 20260504030502 | 61 | 214 | 3.0 | 11.0 | 0.00 | 0.00 | 0.00 | 71 | 1012.0 |
| 20260504030402 | 61 | 259 | 3.0 | 11.0 | 0.00 | 0.00 | 0.00 | 70 | 1012.0 |
| 20260504030302 | 61 | 239 | 3.0 | 11.0 | 0.00 | 0.00 | 0.00 | 70 | 1012.0 |
| 20260504030202 | 61 | 122 | 3.0 | 10.0 | 0.00 | 0.00 | 0.00 | 70 | 1011.9 |
| 20260504030100 | 61 | 271 | 3.0 | 12.0 | 0.00 | 0.00 | 0.00 | 70 | 1011.9 |
| 20260504030024 | 61 | 284 | 2.0 | 12.0 | 0.00 | 0.00 | 0.00 | 70 | 1011.9 |
| 20260504030000 | 61 | 298 | 2.0 | 12.0 | 0.00 | 0.00 | 0.00 | 70 | 1011.9 |
| 20260504025858 | 61 | 291 | 3.0 | 12.0 | 0.00 | 0.00 | 0.00 | 70 | 1011.9 |
| 20260504025758 | 61 | 235 | 3.0 | 12.0 | 0.00 | 0.00 | 0.00 | 70 | 1011.9 |
| 20260504025657 | 62 | 219 | 3.0 | 12.0 | 0.00 | 0.00 | 0.00 | 70 | 1011.9 |
| 20260504025558 | 62 | 224 | 3.0 | 12.0 | 0.00 | 0.00 | 0.00 | 70 | 1011.9 |
| 20260504025524 | 62 | 253 | 3.0 | 12.0 | 0.00 | 0.00 | 0.00 | 69 | 1011.8 |
| 20260504025458 | 62 | 238 | 3.0 | 12.0 | 0.00 | 0.00 | 0.00 | 69 | 1011.8 |
| 20260504025357 | 62 | 273 | 2.0 | 12.0 | 0.00 | 0.00 | 0.00 | 69 | 1011.9 |
| 20260504025252 | 62 | 236 | 2.0 | 12.0 | 0.00 | 0.00 | 0.00 | 69 | 1011.9 |
| 20260504025152 | 62 | 269 | 2.0 | 12.0 | 0.00 | 0.00 | 0.00 | 69 | 1011.9 |
| 20260504025052 | 62 | 300 | 2.0 | 11.0 | 0.00 | 0.00 | 0.00 | 69 | 1011.8 |
| 20260504025024 | 62 | 284 | 2.0 | 11.0 | 0.00 | 0.00 | 0.00 | 69 | 1011.8 |
| 20260504024952 | 62 | 242 | 2.0 | 11.0 | 0.00 | 0.00 | 0.00 | 69 | 1011.8 |
| 20260504024849 | 62 | 242 | 2.0 | 11.0 | 0.00 | 0.00 | 0.00 | 68 | 1011.8 |
| 20260504024744 | 62 | 259 | 2.0 | 11.0 | 0.00 | 0.00 | 0.00 | 68 | 1011.8 |
| 20260504024645 | 62 | 255 | 2.0 | 11.0 | 0.00 | 0.00 | 0.00 | 68 | 1011.7 |
| 20260504024543 | 62 | 251 | 2.0 | 6.0 | 0.00 | 0.00 | 0.00 | 68 | 1011.7 |
| 20260504024524 | 62 | 236 | 2.0 | 6.0 | 0.00 | 0.00 | 0.00 | 68 | 1011.7 |
| 20260504024443 | 62 | 267 | 2.0 | 6.0 | 0.00 | 0.00 | 0.00 | 68 | 1011.7 |
| 20260504024343 | 62 | 233 | 2.0 | 6.0 | 0.00 | 0.00 | 0.00 | 68 | 1011.7 |
| 20260504024243 | 62 | 226 | 2.0 | 12.0 | 0.00 | 0.00 | 0.00 | 67 | 1011.6 |
| 20260504024237 | 62 | 307 | 2.0 | 12.0 | 0.00 | 0.00 | 0.00 | 67 | 1011.7 |
| 20260504024140 | 62 | 244 | 2.0 | 12.0 | 0.00 | 0.00 | 0.00 | 67 | 1011.7 |
| 20260504024128 | 62 | 245 | 2.0 | 12.0 | 0.00 | 0.00 | 0.00 | 67 | 1011.6 |
| 20260504023938 | 62 | 262 | 2.0 | 12.0 | 0.00 | 0.00 | 0.00 | 67 | 1011.6 |
| 20260504023837 | 62 | 231 | 2.0 | 12.0 | 0.00 | 0.00 | 0.00 | 67 | 1011.6 |
| 20260504023735 | 63 | 270 | 2.0 | 12.0 | 0.00 | 0.00 | 0.00 | 67 | 1011.6 |
| 20260504023636 | 63 | 221 | 2.0 | 12.0 | 0.00 | 0.00 | 0.00 | 67 | 1011.6 |
| 20260504023534 | 63 | 212 | 2.0 | 12.0 | 0.00 | 0.00 | 0.00 | 67 | 1011.6 |
| 20260504023511 | 63 | 192 | 2.0 | 12.0 | 0.00 | 0.00 | 0.00 | 67 | 1011.6 |
| 20260504023434 | 63 | 270 | 2.0 | 12.0 | 0.00 | 0.00 | 0.00 | 67 | 1011.6 |
| 20260504023331 | 63 | 280 | 2.0 | 12.0 | 0.00 | 0.00 | 0.00 | 67 | 1011.6 |
| 20260504023230 | 63 | 250 | 2.0 | 12.0 | 0.00 | 0.00 | 0.00 | 66 | 1011.6 |
| 20260504023129 | 63 | 318 | 2.0 | 12.0 | 0.00 | 0.00 | 0.00 | 66 | 1011.5 |
| 20260504023006 | 63 | 235 | 2.0 | 12.0 | 0.00 | 0.00 | 0.00 | 66 | 1011.6 |
| 20260504022928 | 63 | 301 | 2.0 | 12.0 | 0.00 | 0.00 | 0.00 | 66 | 1011.5 |
| 20260504022824 | 63 | 266 | 3.0 | 12.0 | 0.00 | 0.00 | 0.00 | 66 | 1011.5 |
| 20260504022725 | 63 | 297 | 3.0 | 12.0 | 0.00 | 0.00 | 0.00 | 65 | 1011.5 |
| 20260504022719 | 63 | 248 | 3.0 | 12.0 | 0.00 | 0.00 | 0.00 | 66 | 1011.5 |
| 20260504022620 | 63 | 256 | 3.0 | 12.0 | 0.00 | 0.00 | 0.00 | 66 | 1011.5 |
| 20260504022612 | 63 | 281 | 3.0 | 12.0 | 0.00 | 0.00 | 0.00 | 65 | 1011.5 |
| 20260504022420 | 63 | 245 | 3.0 | 12.0 | 0.00 | 0.00 | 0.00 | 65 | 1011.5 |
| 20260504022319 | 63 | 262 | 3.0 | 12.0 | 0.00 | 0.00 | 0.00 | 65 | 1011.5 |
| 20260504022214 | 63 | 238 | 4.0 | 16.0 | 0.00 | 0.00 | 0.00 | 65 | 1011.4 |
| 20260504022114 | 63 | 270 | 4.0 | 16.0 | 0.00 | 0.00 | 0.00 | 64 | 1011.4 |
| 20260504022016 | 64 | 231 | 4.0 | 16.0 | 0.00 | 0.00 | 0.00 | 64 | 1011.4 |
| 20260504022005 | 63 | 269 | 4.0 | 16.0 | 0.00 | 0.00 | 0.00 | 64 | 1011.4 |
| 20260504021914 | 64 | 248 | 4.0 | 16.0 | 0.00 | 0.00 | 0.00 | 64 | 1011.3 |
| 20260504021813 | 64 | 242 | 4.0 | 16.0 | 0.00 | 0.00 | 0.00 | 63 | 1011.4 |
| 20260504021720 | 64 | 207 | 4.0 | 16.0 | 0.00 | 0.00 | 0.00 | 62 | 1011.3 |
| 20260504021712 | 64 | 240 | 4.0 | 16.0 | 0.00 | 0.00 | 0.00 | 63 | 1011.3 |
| 20260504021612 | 64 | 214 | 4.0 | 16.0 | 0.00 | 0.00 | 0.00 | 62 | 1011.3 |
| 20260504021557 | 64 | 236 | 4.0 | 16.0 | 0.00 | 0.00 | 0.00 | 62 | 1011.3 |
| 20260504021410 | 64 | 228 | 4.0 | 16.0 | 0.00 | 0.00 | 0.00 | 62 | 1011.3 |
| 20260504021307 | 64 | 232 | 4.0 | 16.0 | 0.00 | 0.00 | 0.00 | 62 | 1011.3 |
| 20260504021207 | 64 | 163 | 3.0 | 11.0 | 0.00 | 0.00 | 0.00 | 63 | 1011.3 |
| 20260504021202 | 64 | 225 | 3.0 | 11.0 | 0.00 | 0.00 | 0.00 | 63 | 1011.3 |
| 20260504021104 | 64 | 242 | 3.0 | 11.0 | 0.00 | 0.00 | 0.00 | 63 | 1011.3 |
| 20260504021055 | 64 | 259 | 3.0 | 11.0 | 0.00 | 0.00 | 0.00 | 63 | 1011.3 |
| 20260504020902 | 64 | 233 | 3.0 | 11.0 | 0.00 | 0.00 | 0.00 | 63 | 1011.3 |
| 20260504020802 | 64 | 269 | 3.0 | 11.0 | 0.00 | 0.00 | 0.00 | 63 | 1011.3 |
| 20260504020700 | 64 | 257 | 2.0 | 11.0 | 0.00 | 0.00 | 0.00 | 63 | 1011.4 |
| 20260504020559 | 64 | 190 | 3.0 | 11.0 | 0.00 | 0.00 | 0.00 | 63 | 1011.3 |
| 20260504020457 | 64 | 323 | 2.0 | 11.0 | 0.00 | 0.00 | 0.00 | 63 | 1011.2 |
| 20260504020443 | 64 | 174 | 2.0 | 11.0 | 0.00 | 0.00 | 0.00 | 63 | 1011.2 |
| 20260504020358 | 64 | 249 | 2.0 | 11.0 | 0.00 | 0.00 | 0.00 | 63 | 1011.2 |
| 20260504020255 | 64 | 260 | 2.0 | 11.0 | 0.00 | 0.00 | 0.00 | 63 | 1011.2 |
| 20260504020203 | 64 | 294 | 3.0 | 11.0 | 0.00 | 0.00 | 0.00 | 62 | 1011.2 |
| 20260504020156 | 64 | 235 | 2.0 | 11.0 | 0.00 | 0.00 | 0.00 | 63 | 1011.2 |
| 20260504020104 | 64 | 225 | 2.0 | 11.0 | 0.00 | 0.00 | 0.00 | 62 | 1011.2 |
| 20260504020055 | 64 | 278 | 3.0 | 11.0 | 0.00 | 0.00 | 0.00 | 62 | 1011.1 |
| 20260504015852 | 64 | 333 | 3.0 | 11.0 | 0.00 | 0.00 | 0.00 | 62 | 1011.2 |
| 20260504015749 | 64 | 301 | 3.0 | 11.0 | 0.00 | 0.00 | 0.00 | 61 | 1011.1 |
| 20260504015644 | 64 | 290 | 3.0 | 11.0 | 0.00 | 0.00 | 0.00 | 61 | 1011.1 |
| 20260504015544 | 64 | 232 | 3.0 | 11.0 | 0.00 | 0.00 | 0.00 | 61 | 1011.1 |
| 20260504015446 | 64 | 274 | 3.0 | 11.0 | 0.00 | 0.00 | 0.00 | 61 | 1011.1 |
| 20260504015344 | 64 | 248 | 3.0 | 11.0 | 0.00 | 0.00 | 0.00 | 61 | 1011.0 |
| 20260504015243 | 64 | 239 | 3.0 | 11.0 | 0.00 | 0.00 | 0.00 | 61 | 1011.0 |
| 20260504015142 | 64 | 259 | 3.0 | 10.0 | 0.00 | 0.00 | 0.00 | 61 | 1011.1 |
| 20260504015041 | 64 | 219 | 3.0 | 10.0 | 0.00 | 0.00 | 0.00 | 61 | 1011.1 |
| 20260504014947 | 65 | 219 | 3.0 | 10.0 | 0.00 | 0.00 | 0.00 | 60 | 1011.1 |
| 20260504014940 | 65 | 264 | 3.0 | 10.0 | 0.00 | 0.00 | 0.00 | 60 | 1011.1 |
| 20260504014839 | 65 | 243 | 3.0 | 10.0 | 0.00 | 0.00 | 0.00 | 60 | 1011.1 |
| 20260504014739 | 65 | 257 | 3.0 | 10.0 | 0.00 | 0.00 | 0.00 | 60 | 1011.1 |
| 20260504014638 | 65 | 212 | 3.0 | 10.0 | 0.00 | 0.00 | 0.00 | 60 | 1011.0 |
| 20260504014538 | 65 | 257 | 3.0 | 10.0 | 0.00 | 0.00 | 0.00 | 60 | 1011.1 |
| 20260504014444 | 65 | 248 | 3.0 | 10.0 | 0.00 | 0.00 | 0.00 | 60 | 1011.1 |
| 20260504014438 | 65 | 245 | 3.0 | 10.0 | 0.00 | 0.00 | 0.00 | 60 | 1011.0 |
| 20260504014337 | 65 | 259 | 4.0 | 10.0 | 0.00 | 0.00 | 0.00 | 60 | 1011.0 |
| 20260504014238 | 65 | 287 | 4.0 | 10.0 | 0.00 | 0.00 | 0.00 | 60 | 1010.9 |
| 20260504014136 | 65 | 198 | 4.0 | 12.0 | 0.00 | 0.00 | 0.00 | 61 | 1011.0 |
| 20260504014036 | 65 | 273 | 4.0 | 16.0 | 0.00 | 0.00 | 0.00 | 60 | 1011.0 |
| 20260504013935 | 65 | 236 | 4.0 | 16.0 | 0.00 | 0.00 | 0.00 | 61 | 1011.0 |
| 20260504013836 | 65 | 245 | 4.0 | 16.0 | 0.00 | 0.00 | 0.00 | 60 | 1011.0 |
| 20260504013734 | 65 | 239 | 4.0 | 16.0 | 0.00 | 0.00 | 0.00 | 60 | 1011.1 |
| 20260504013706 | 65 | 221 | 4.0 | 16.0 | 0.00 | 0.00 | 0.00 | 60 | 1011.0 |
| 20260504013634 | 65 | 229 | 4.0 | 16.0 | 0.00 | 0.00 | 0.00 | 60 | 1011.0 |
| 20260504013552 | 65 | 229 | 4.0 | 16.0 | 0.00 | 0.00 | 0.00 | 60 | 1011.1 |
| 20260504013431 | 65 | 281 | 4.0 | 16.0 | 0.00 | 0.00 | 0.00 | 60 | 1011.0 |
| 20260504013332 | 65 | 263 | 4.0 | 16.0 | 0.00 | 0.00 | 0.00 | 60 | 1011.1 |
| 20260504013231 | 65 | 240 | 4.0 | 16.0 | 0.00 | 0.00 | 0.00 | 60 | 1011.1 |
| 20260504013132 | 65 | 215 | 4.0 | 16.0 | 0.00 | 0.00 | 0.00 | 60 | 1011.1 |
| 20260504013031 | 65 | 229 | 4.0 | 13.0 | 0.00 | 0.00 | 0.00 | 60 | 1011.0 |
| 20260504012942 | 65 | 243 | 4.0 | 13.0 | 0.00 | 0.00 | 0.00 | 60 | 1011.0 |
| 20260504012929 | 65 | 218 | 4.0 | 13.0 | 0.00 | 0.00 | 0.00 | 60 | 1011.0 |
| 20260504012830 | 65 | 229 | 4.0 | 13.0 | 0.00 | 0.00 | 0.00 | 60 | 1011.0 |
| 20260504012727 | 65 | 257 | 3.0 | 13.0 | 0.00 | 0.00 | 0.00 | 60 | 1011.1 |
| 20260504012628 | 65 | 197 | 4.0 | 13.0 | 0.00 | 0.00 | 0.00 | 60 | 1011.1 |
| 20260504012524 | 65 | 262 | 4.0 | 13.0 | 0.00 | 0.00 | 0.00 | 61 | 1011.1 |
| 20260504012441 | 65 | 250 | 4.0 | 13.0 | 0.00 | 0.00 | 0.00 | 60 | 1011.0 |
| 20260504012418 | 65 | 285 | 4.0 | 15.0 | 0.00 | 0.00 | 0.00 | 60 | 1011.0 |
| 20260504012317 | 65 | 257 | 4.0 | 15.0 | 0.00 | 0.00 | 0.00 | 60 | 1011.1 |
| 20260504012218 | 65 | 215 | 4.0 | 15.0 | 0.00 | 0.00 | 0.00 | 61 | 1011.0 |
| 20260504012206 | 65 | 307 | 4.0 | 15.0 | 0.00 | 0.00 | 0.00 | 61 | 1011.1 |
| 20260504012118 | 65 | 252 | 4.0 | 15.0 | 0.00 | 0.00 | 0.00 | 61 | 1011.0 |
| 20260504012054 | 65 | 215 | 4.0 | 15.0 | 0.00 | 0.00 | 0.00 | 61 | 1011.1 |
| 20260504011914 | 65 | 248 | 5.0 | 15.0 | 0.00 | 0.00 | 0.00 | 61 | 1011.1 |
| 20260504011815 | 65 | 266 | 5.0 | 15.0 | 0.00 | 0.00 | 0.00 | 61 | 1011.1 |
| 20260504011715 | 65 | 242 | 5.0 | 15.0 | 0.00 | 0.00 | 0.00 | 60 | 1011.1 |
| 20260504011706 | 65 | 245 | 4.0 | 15.0 | 0.00 | 0.00 | 0.00 | 60 | 1011.1 |
| 20260504011614 | 65 | 219 | 5.0 | 15.0 | 0.00 | 0.00 | 0.00 | 60 | 1011.1 |
| 20260504011552 | 65 | 245 | 5.0 | 15.0 | 0.00 | 0.00 | 0.00 | 60 | 1011.1 |
| 20260504011408 | 65 | 233 | 4.0 | 13.0 | 0.00 | 0.00 | 0.00 | 60 | 1011.1 |
| 20260504011308 | 65 | 224 | 4.0 | 13.0 | 0.00 | 0.00 | 0.00 | 60 | 1011.1 |
| 20260504011208 | 65 | 248 | 3.0 | 13.0 | 0.00 | 0.00 | 0.00 | 60 | 1011.1 |
| 20260504011108 | 65 | 231 | 3.0 | 13.0 | 0.00 | 0.00 | 0.00 | 61 | 1011.0 |
| 20260504011005 | 65 | 231 | 3.0 | 13.0 | 0.00 | 0.00 | 0.00 | 61 | 1011.0 |
| 20260504010943 | 65 | 203 | 3.0 | 13.0 | 0.00 | 0.00 | 0.00 | 61 | 1011.0 |
| 20260504010900 | 65 | 226 | 3.0 | 10.0 | 0.00 | 0.00 | 0.00 | 61 | 1011.0 |
| 20260504010800 | 65 | 262 | 4.0 | 11.0 | 0.00 | 0.00 | 0.00 | 61 | 1011.0 |
| 20260504010659 | 65 | 319 | 4.0 | 11.0 | 0.00 | 0.00 | 0.00 | 60 | 1011.0 |
| 20260504010600 | 65 | 253 | 4.0 | 11.0 | 0.00 | 0.00 | 0.00 | 61 | 1011.0 |
| 20260504010458 | 65 | 235 | 3.0 | 11.0 | 0.00 | 0.00 | 0.00 | 61 | 1011.0 |
| 20260504010441 | 65 | 284 | 3.0 | 11.0 | 0.00 | 0.00 | 0.00 | 61 | 1011.0 |
| 20260504010352 | 65 | 212 | 4.0 | 11.0 | 0.00 | 0.00 | 0.00 | 61 | 1011.0 |
| 20260504010252 | 65 | 301 | 4.0 | 11.0 | 0.00 | 0.00 | 0.00 | 60 | 1011.0 |
| 20260504010152 | 66 | 250 | 4.0 | 11.0 | 0.00 | 0.00 | 0.00 | 60 | 1011.0 |
| 20260504010054 | 66 | 288 | 4.0 | 11.0 | 0.00 | 0.00 | 0.00 | 60 | 1011.0 |
| 20260504005953 | 66 | 228 | 4.0 | 11.0 | 0.00 | 0.00 | 0.00 | 60 | 1011.0 |
| 20260504005943 | 66 | 221 | 4.0 | 11.0 | 0.00 | 0.00 | 0.00 | 60 | 1011.0 |
| 20260504005846 | 66 | 250 | 4.0 | 11.0 | 0.00 | 0.00 | 0.00 | 59 | 1011.0 |
| 20260504005746 | 66 | 231 | 3.0 | 11.0 | 0.00 | 0.00 | 0.00 | 60 | 1011.0 |
| 20260504005645 | 66 | 212 | 3.0 | 11.0 | 0.00 | 0.00 | 0.00 | 60 | 1011.0 |
| 20260504005546 | 66 | 240 | 3.0 | 11.0 | 0.00 | 0.00 | 0.00 | 60 | 1011.0 |
| 20260504005444 | 66 | 193 | 3.0 | 11.0 | 0.00 | 0.00 | 0.00 | 59 | 1011.0 |
| 20260504005338 | 66 | 250 | 3.0 | 11.0 | 0.00 | 0.00 | 0.00 | 59 | 1011.0 |
| 20260504005238 | 66 | 287 | 3.0 | 11.0 | 0.00 | 0.00 | 0.00 | 59 | 1011.0 |
| 20260504005038 | 66 | 248 | 3.0 | 10.0 | 0.00 | 0.00 | 0.00 | 60 | 1011.0 |
| 20260504004943 | 66 | 233 | 3.0 | 10.0 | 0.00 | 0.00 | 0.00 | 60 | 1011.0 |
| 20260504004937 | 66 | 212 | 4.0 | 10.0 | 0.00 | 0.00 | 0.00 | 60 | 1011.0 |
| 20260504004831 | 66 | 253 | 4.0 | 13.0 | 0.00 | 0.00 | 0.00 | 60 | 1010.9 |
| 20260504004732 | 66 | 243 | 4.0 | 13.0 | 0.00 | 0.00 | 0.00 | 60 | 1011.0 |
| 20260504004632 | 66 | 233 | 4.0 | 13.0 | 0.00 | 0.00 | 0.00 | 60 | 1011.0 |
| 20260504004531 | 66 | 248 | 4.0 | 13.0 | 0.00 | 0.00 | 0.00 | 60 | 1011.0 |
| 20260504004439 | 66 | 278 | 4.0 | 13.0 | 0.00 | 0.00 | 0.00 | 60 | 1011.0 |
| 20260504004431 | 66 | 245 | 4.0 | 13.0 | 0.00 | 0.00 | 0.00 | 60 | 1011.0 |
| 20260504004328 | 66 | 287 | 3.0 | 13.0 | 0.00 | 0.00 | 0.00 | 60 | 1011.1 |
| 20260504004226 | 66 | 235 | 3.0 | 13.0 | 0.00 | 0.00 | 0.00 | 60 | 1011.0 |
| 20260504004126 | 66 | 240 | 3.0 | 13.0 | 0.00 | 0.00 | 0.00 | 60 | 1011.1 |
| 20260504004026 | 66 | 252 | 3.0 | 13.0 | 0.00 | 0.00 | 0.00 | 61 | 1011.0 |
| 20260504003938 | 66 | 294 | 3.0 | 13.0 | 0.00 | 0.00 | 0.00 | 61 | 1011.0 |
| 20260504003925 | 66 | 260 | 3.0 | 13.0 | 0.00 | 0.00 | 0.00 | 61 | 1011.0 |
| 20260504003823 | 66 | 241 | 3.0 | 11.0 | 0.00 | 0.00 | 0.00 | 61 | 1011.1 |
| 20260504003725 | 66 | 248 | 3.0 | 11.0 | 0.00 | 0.00 | 0.00 | 61 | 1011.0 |
| 20260504003713 | 66 | 264 | 3.0 | 11.0 | 0.00 | 0.00 | 0.00 | 61 | 1011.1 |
| 20260504003622 | 66 | 245 | 3.0 | 11.0 | 0.00 | 0.00 | 0.00 | 61 | 1011.0 |
| 20260504003552 | 66 | 186 | 3.0 | 11.0 | 0.00 | 0.00 | 0.00 | 61 | 1011.0 |
| 20260504003419 | 66 | 226 | 3.0 | 11.0 | 0.00 | 0.00 | 0.00 | 61 | 1011.1 |
| 20260504003315 | 66 | 231 | 3.0 | 11.0 | 0.00 | 0.00 | 0.00 | 60 | 1011.0 |
| 20260504003216 | 66 | 224 | 3.0 | 11.0 | 0.00 | 0.00 | 0.00 | 60 | 1011.0 |
| 20260504003116 | 66 | 230 | 2.0 | 10.0 | 0.00 | 0.00 | 0.00 | 60 | 1011.0 |
| 20260504003017 | 66 | 274 | 2.0 | 10.0 | 0.00 | 0.00 | 0.00 | 60 | 1011.0 |
| 20260504002938 | 66 | 248 | 2.0 | 10.0 | 0.00 | 0.00 | 0.00 | 60 | 1011.0 |
| 20260504002913 | 66 | 236 | 2.0 | 10.0 | 0.00 | 0.00 | 0.00 | 60 | 1011.0 |
| 20260504002807 | 66 | 228 | 2.0 | 10.0 | 0.00 | 0.00 | 0.00 | 60 | 1011.0 |
| 20260504002708 | 66 | 203 | 2.0 | 9.0 | 0.00 | 0.00 | 0.00 | 60 | 1011.0 |
| 20260504002608 | 66 | 232 | 2.0 | 10.0 | 0.00 | 0.00 | 0.00 | 60 | 1011.0 |
| 20260504002507 | 66 | 300 | 2.0 | 10.0 | 0.00 | 0.00 | 0.00 | 60 | 1011.0 |
| 20260504002436 | 66 | 224 | 3.0 | 10.0 | 0.00 | 0.00 | 0.00 | 60 | 1011.0 |
| 20260504002407 | 66 | 245 | 3.0 | 10.0 | 0.00 | 0.00 | 0.00 | 60 | 1011.0 |
| 20260504002303 | 66 | 276 | 3.0 | 13.0 | 0.00 | 0.00 | 0.00 | 60 | 1011.0 |
| 20260504002202 | 66 | 289 | 3.0 | 13.0 | 0.00 | 0.00 | 0.00 | 60 | 1011.0 |
| 20260504002102 | 66 | 319 | 3.0 | 13.0 | 0.00 | 0.00 | 0.00 | 60 | 1011.0 |
| 20260504002002 | 66 | 287 | 3.0 | 13.0 | 0.00 | 0.00 | 0.00 | 59 | 1011.0 |
| 20260504001937 | 66 | 297 | 3.0 | 13.0 | 0.00 | 0.00 | 0.00 | 59 | 1011.0 |
| 20260504001901 | 67 | 284 | 3.0 | 13.0 | 0.00 | 0.00 | 0.00 | 59 | 1011.0 |
| 20260504001758 | 67 | 250 | 4.0 | 13.0 | 0.00 | 0.00 | 0.00 | 59 | 1011.0 |
| 20260504001556 | 67 | 240 | 4.0 | 14.0 | 0.00 | 0.00 | 0.00 | 60 | 1011.1 |
| 20260504001456 | 67 | 231 | 4.0 | 14.0 | 0.00 | 0.00 | 0.00 | 59 | 1011.1 |
| 20260504001436 | 67 | 240 | 4.0 | 14.0 | 0.00 | 0.00 | 0.00 | 59 | 1011.0 |
| 20260504001355 | 67 | 215 | 4.0 | 14.0 | 0.00 | 0.00 | 0.00 | 60 | 1011.0 |
| 20260504001252 | 67 | 288 | 4.0 | 14.0 | 0.00 | 0.00 | 0.00 | 59 | 1011.0 |
| 20260504001150 | 67 | 248 | 4.0 | 14.0 | 0.00 | 0.00 | 0.00 | 59 | 1011.0 |
| 20260504001050 | 67 | 243 | 4.0 | 14.0 | 0.00 | 0.00 | 0.00 | 59 | 1011.0 |
| 20260504000949 | 67 | 276 | 4.0 | 14.0 | 0.00 | 0.00 | 0.00 | 58 | 1011.0 |
| 20260504000933 | 67 | 276 | 5.0 | 14.0 | 0.00 | 0.00 | 0.00 | 58 | 1011.0 |
| 20260504000850 | 67 | 222 | 5.0 | 18.0 | 0.00 | 0.00 | 0.00 | 58 | 1011.1 |
| 20260504000748 | 67 | 270 | 5.0 | 18.0 | 0.00 | 0.00 | 0.00 | 58 | 1011.1 |
| 20260504000648 | 67 | 226 | 5.0 | 18.0 | 0.00 | 0.00 | 0.00 | 58 | 1011.1 |
| 20260504000547 | 67 | 203 | 5.0 | 18.0 | 0.00 | 0.00 | 0.00 | 58 | 1011.0 |
| 20260504000448 | 67 | 253 | 5.0 | 18.0 | 0.00 | 0.00 | 0.00 | 59 | 1011.0 |
| 20260504000433 | 67 | 281 | 5.0 | 18.0 | 0.00 | 0.00 | 0.00 | 58 | 1011.0 |
| 20260504000349 | 67 | 281 | 5.0 | 18.0 | 0.00 | 0.00 | 0.00 | 58 | 1011.1 |
| 20260504000241 | 67 | 280 | 5.0 | 18.0 | 0.00 | 0.00 | 0.00 | 57 | 1011.1 |
| 20260504000138 | 67 | 242 | 4.0 | 18.0 | 0.00 | 0.00 | 0.00 | 57 | 1011.1 |
| 20260504000036 | 68 | 231 | 4.0 | 18.0 | 0.00 | 0.00 | 0.00 | 57 | 1011.1 |
| 20260503235938 | 68 | 225 | 3.0 | 18.0 | 0.00 | 0.00 | 0.00 | 57 | 1011.1 |
| 20260503235833 | 68 | 258 | 3.0 | 10.0 | 0.00 | 0.00 | 0.00 | 56 | 1011.1 |
| 20260503235730 | 68 | 239 | 3.0 | 10.0 | 0.00 | 0.00 | 0.00 | 57 | 1011.1 |
| 20260503235627 | 68 | 205 | 2.0 | 10.0 | 0.00 | 0.00 | 0.00 | 56 | 1011.1 |
| 20260503235528 | 69 | 183 | 2.0 | 10.0 | 0.00 | 0.00 | 0.00 | 57 | 1011.1 |
| 20260503235436 | 69 | 249 | 2.0 | 10.0 | 0.00 | 0.00 | 0.00 | 56 | 1011.1 |
| 20260503235428 | 69 | 276 | 2.0 | 10.0 | 0.00 | 0.00 | 0.00 | 57 | 1011.1 |
| 20260503235327 | 69 | 76 | 2.0 | 10.0 | 0.00 | 0.00 | 0.00 | 57 | 1011.1 |
| 20260503235222 | 68 | 243 | 2.0 | 10.0 | 0.00 | 0.00 | 0.00 | 58 | 1011.1 |
| 20260503235204 | 68 | 235 | 1.0 | 10.0 | 0.00 | 0.00 | 0.00 | 57 | 1011.1 |
| 20260503235042 | 68 | 231 | 2.0 | 10.0 | 0.00 | 0.00 | 0.00 | 58 | 1011.1 |
| 20260503234922 | 68 | 214 | 1.0 | 10.0 | 0.00 | 0.00 | 0.00 | 57 | 1011.1 |
| 20260503234821 | 68 | 181 | 1.0 | 6.0 | 0.00 | 0.00 | 0.00 | 57 | 1011.2 |
| 20260503234718 | 68 | 248 | 1.0 | 5.0 | 0.00 | 0.00 | 0.00 | 57 | 1011.1 |
| 20260503234616 | 68 | 232 | 1.0 | 4.0 | 0.00 | 0.00 | 0.00 | 57 | 1011.1 |
| 20260503234516 | 68 | 273 | 1.0 | 3.0 | 0.00 | 0.00 | 0.00 | 58 | 1011.1 |
| 20260503234433 | 68 | 271 | 1.0 | 3.0 | 0.00 | 0.00 | 0.00 | 58 | 1011.1 |
| 20260503234416 | 68 | 307 | 1.0 | 3.0 | 0.00 | 0.00 | 0.00 | 58 | 1011.1 |
| 20260503234315 | 68 | 239 | 1.0 | 2.0 | 0.00 | 0.00 | 0.00 | 58 | 1011.1 |
| 20260503234211 | 68 | 286 | 1.0 | 2.0 | 0.00 | 0.00 | 0.00 | 58 | 1011.1 |
| 20260503234110 | 68 | 276 | 1.0 | 2.0 | 0.00 | 0.00 | 0.00 | 58 | 1011.1 |
| 20260503234010 | 68 | 245 | 1.0 | 8.0 | 0.00 | 0.00 | 0.00 | 57 | 1011.0 |
| 20260503233931 | 68 | 245 | 1.0 | 9.0 | 0.00 | 0.00 | 0.00 | 58 | 1011.1 |
| 20260503233910 | 68 | 218 | 1.0 | 9.0 | 0.00 | 0.00 | 0.00 | 58 | 1011.1 |
| 20260503233810 | 68 | 212 | 2.0 | 9.0 | 0.00 | 0.00 | 0.00 | 57 | 1011.2 |
| 20260503233710 | 68 | 294 | 2.0 | 10.0 | 0.00 | 0.00 | 0.00 | 58 | 1011.1 |
| 20260503233608 | 68 | 124 | 2.0 | 10.0 | 0.00 | 0.00 | 0.00 | 58 | 1011.1 |
| 20260503233508 | 68 | 274 | 2.0 | 10.0 | 0.00 | 0.00 | 0.00 | 59 | 1011.1 |
| 20260503233406 | 68 | 274 | 2.0 | 10.0 | 0.00 | 0.00 | 0.00 | 59 | 1011.2 |
| 20260503233303 | 68 | 274 | 2.0 | 10.0 | 0.00 | 0.00 | 0.00 | 58 | 1011.2 |
| 20260503233201 | 68 | 236 | 2.0 | 10.0 | 0.00 | 0.00 | 0.00 | 57 | 1011.2 |
| 20260503233102 | 68 | 248 | 2.0 | 10.0 | 0.00 | 0.00 | 0.00 | 57 | 1011.1 |
| 20260503233000 | 68 | 231 | 2.0 | 10.0 | 0.00 | 0.00 | 0.00 | 58 | 1011.2 |
| 20260503232929 | 68 | 185 | 2.0 | 10.0 | 0.00 | 0.00 | 0.00 | 57 | 1011.1 |
| 20260503232901 | 68 | 263 | 2.0 | 10.0 | 0.00 | 0.00 | 0.00 | 57 | 1011.1 |
| 20260503232758 | 68 | 240 | 1.0 | 9.0 | 0.00 | 0.00 | 0.00 | 57 | 1011.1 |
| 20260503232652 | 68 | 270 | 2.0 | 8.0 | 0.00 | 0.00 | 0.00 | 57 | 1011.1 |
| 20260503232551 | 68 | 219 | 2.0 | 8.0 | 0.00 | 0.00 | 0.00 | 58 | 1011.2 |
| 20260503232452 | 68 | 248 | 2.0 | 8.0 | 0.00 | 0.00 | 0.00 | 58 | 1011.1 |
| 20260503232429 | 68 | 250 | 2.0 | 8.0 | 0.00 | 0.00 | 0.00 | 58 | 1011.1 |
| 20260503232352 | 68 | 256 | 2.0 | 8.0 | 0.00 | 0.00 | 0.00 | 58 | 1011.1 |
| 20260503232249 | 68 | 242 | 2.0 | 8.0 | 0.00 | 0.00 | 0.00 | 58 | 1011.1 |
| 20260503232146 | 68 | 249 | 2.0 | 8.0 | 0.00 | 0.00 | 0.00 | 58 | 1011.0 |
| 20260503232044 | 68 | 248 | 2.0 | 8.0 | 0.00 | 0.00 | 0.00 | 58 | 1011.0 |
| 20260503231944 | 68 | 248 | 2.0 | 8.0 | 0.00 | 0.00 | 0.00 | 58 | 1011.1 |
| 20260503231923 | 68 | 249 | 2.0 | 8.0 | 0.00 | 0.00 | 0.00 | 57 | 1011.1 |
| 20260503231844 | 68 | 212 | 2.0 | 8.0 | 0.00 | 0.00 | 0.00 | 57 | 1011.0 |
| 20260503231743 | 68 | 212 | 2.0 | 8.0 | 0.00 | 0.00 | 0.00 | 57 | 1011.0 |
| 20260503231640 | 68 | 226 | 2.0 | 7.0 | 0.00 | 0.00 | 0.00 | 59 | 1011.0 |
| 20260503231539 | 68 | 236 | 2.0 | 14.0 | 0.00 | 0.00 | 0.00 | 59 | 1011.0 |
| 20260503231440 | 68 | 233 | 2.0 | 14.0 | 0.00 | 0.00 | 0.00 | 59 | 1011.0 |
| 20260503231417 | 68 | 256 | 2.0 | 14.0 | 0.00 | 0.00 | 0.00 | 59 | 1011.0 |
| 20260503231340 | 67 | 257 | 3.0 | 14.0 | 0.00 | 0.00 | 0.00 | 59 | 1010.9 |
| 20260503231237 | 67 | 239 | 3.0 | 14.0 | 0.00 | 0.00 | 0.00 | 58 | 1010.9 |
| 20260503231136 | 67 | 210 | 4.0 | 14.0 | 0.00 | 0.00 | 0.00 | 59 | 1010.9 |
| 20260503231035 | 67 | 217 | 4.0 | 14.0 | 0.00 | 0.00 | 0.00 | 58 | 1010.9 |
| 20260503230936 | 67 | 274 | 4.0 | 14.0 | 0.00 | 0.00 | 0.00 | 58 | 1010.9 |
| 20260503230910 | 67 | 259 | 4.0 | 14.0 | 0.00 | 0.00 | 0.00 | 58 | 1010.9 |
| 20260503230834 | 67 | 252 | 4.0 | 14.0 | 0.00 | 0.00 | 0.00 | 58 | 1010.9 |
| 20260503230731 | 67 | 294 | 4.0 | 14.0 | 0.00 | 0.00 | 0.00 | 58 | 1010.9 |
| 20260503230626 | 67 | 285 | 4.0 | 14.0 | 0.00 | 0.00 | 0.00 | 58 | 1010.9 |
| 20260503230526 | 67 | 238 | 4.0 | 10.0 | 0.00 | 0.00 | 0.00 | 58 | 1010.9 |
| 20260503230426 | 67 | 231 | 4.0 | 10.0 | 0.00 | 0.00 | 0.00 | 58 | 1010.8 |
| 20260503230404 | 67 | 233 | 4.0 | 10.0 | 0.00 | 0.00 | 0.00 | 58 | 1010.8 |
| 20260503230353 | 67 | 239 | 4.0 | 11.0 | 0.00 | 0.00 | 0.00 | 58 | 1010.8 |
| 20260503230326 | 67 | 240 | 4.0 | 10.0 | 0.00 | 0.00 | 0.00 | 57 | 1010.9 |
| 20260503230237 | 68 | 212 | 4.0 | 10.0 | 0.00 | 0.00 | 0.00 | 57 | 1010.9 |
| 20260503230124 | 68 | 218 | 4.0 | 9.0 | 0.00 | 0.00 | 0.00 | 58 | 1010.9 |
| 20260503230020 | 67 | 226 | 4.0 | 9.0 | 0.00 | 0.00 | 0.00 | 58 | 1010.8 |
| 20260503230011 | 67 | 273 | 4.0 | 11.0 | 0.00 | 0.00 | 0.00 | 58 | 1010.8 |
| 20260503225820 | 67 | 245 | 4.0 | 11.0 | 0.00 | 0.00 | 0.00 | 58 | 1010.9 |
| 20260503225719 | 67 | 246 | 4.0 | 11.0 | 0.00 | 0.00 | 0.00 | 57 | 1010.9 |
| 20260503225618 | 68 | 236 | 4.0 | 11.0 | 0.00 | 0.00 | 0.00 | 57 | 1010.9 |
| 20260503225518 | 68 | 228 | 4.0 | 11.0 | 0.00 | 0.00 | 0.00 | 57 | 1010.9 |
| 20260503225418 | 68 | 264 | 3.0 | 11.0 | 0.00 | 0.00 | 0.00 | 57 | 1010.9 |
| 20260503225354 | 68 | 263 | 3.0 | 11.0 | 0.00 | 0.00 | 0.00 | 57 | 1010.9 |
| 20260503225316 | 68 | 225 | 3.0 | 11.0 | 0.00 | 0.00 | 0.00 | 57 | 1010.8 |
| 20260503225213 | 68 | 231 | 3.0 | 11.0 | 0.00 | 0.00 | 0.00 | 56 | 1010.9 |
| 20260503225119 | 68 | 277 | 3.0 | 11.0 | 0.00 | 0.00 | 0.00 | 57 | 1010.9 |
| 20260503225108 | 68 | 267 | 3.0 | 11.0 | 0.00 | 0.00 | 0.00 | 56 | 1010.9 |
| 20260503225008 | 68 | 221 | 3.0 | 11.0 | 0.00 | 0.00 | 0.00 | 56 | 1010.9 |
| 20260503224959 | 68 | 200 | 3.0 | 11.0 | 0.00 | 0.00 | 0.00 | 57 | 1010.8 |
| 20260503224808 | 68 | 240 | 3.0 | 11.0 | 0.00 | 0.00 | 0.00 | 56 | 1010.9 |
| 20260503224707 | 68 | 263 | 3.0 | 11.0 | 0.00 | 0.00 | 0.00 | 57 | 1010.8 |
| 20260503224605 | 68 | 260 | 2.0 | 11.0 | 0.00 | 0.00 | 0.00 | 57 | 1010.9 |
| 20260503224506 | 68 | 215 | 3.0 | 11.0 | 0.00 | 0.00 | 0.00 | 57 | 1010.8 |
| 20260503224404 | 68 | 312 | 3.0 | 11.0 | 0.00 | 0.00 | 0.00 | 57 | 1010.8 |
| 20260503224344 | 68 | 231 | 4.0 | 11.0 | 0.00 | 0.00 | 0.00 | 57 | 1010.8 |
| 20260503224304 | 68 | 229 | 4.0 | 11.0 | 0.00 | 0.00 | 0.00 | 57 | 1010.8 |
| 20260503224201 | 68 | 290 | 4.0 | 15.0 | 0.00 | 0.00 | 0.00 | 57 | 1010.8 |
| 20260503224055 | 68 | 277 | 4.0 | 15.0 | 0.00 | 0.00 | 0.00 | 57 | 1010.9 |
| 20260503223956 | 68 | 238 | 5.0 | 15.0 | 0.00 | 0.00 | 0.00 | 57 | 1011.0 |
| 20260503223856 | 68 | 257 | 5.0 | 15.0 | 0.00 | 0.00 | 0.00 | 58 | 1010.9 |
| 20260503223836 | 68 | 266 | 6.0 | 15.0 | 0.00 | 0.00 | 0.00 | 58 | 1011.0 |
| 20260503223756 | 68 | 284 | 6.0 | 15.0 | 0.00 | 0.00 | 0.00 | 57 | 1011.0 |
| 20260503223655 | 68 | 262 | 6.0 | 15.0 | 0.00 | 0.00 | 0.00 | 58 | 1010.9 |
| 20260503223552 | 68 | 217 | 6.0 | 15.0 | 0.00 | 0.00 | 0.00 | 57 | 1010.9 |
| 20260503223452 | 68 | 200 | 6.0 | 15.0 | 0.00 | 0.00 | 0.00 | 56 | 1011.0 |
| 20260503223352 | 68 | 232 | 6.0 | 15.0 | 0.00 | 0.00 | 0.00 | 56 | 1011.0 |
| 20260503223331 | 68 | 250 | 5.0 | 15.0 | 0.00 | 0.00 | 0.00 | 56 | 1011.0 |
| 20260503223252 | 68 | 225 | 5.0 | 15.0 | 0.00 | 0.00 | 0.00 | 57 | 1011.0 |
| 20260503223149 | 68 | 214 | 5.0 | 15.0 | 0.00 | 0.00 | 0.00 | 57 | 1011.0 |
| 20260503223044 | 68 | 170 | 5.0 | 15.0 | 0.00 | 0.00 | 0.00 | 56 | 1011.0 |
| 20260503222943 | 68 | 131 | 5.0 | 14.0 | 0.00 | 0.00 | 0.00 | 56 | 1010.9 |
| 20260503222844 | 68 | 203 | 5.0 | 11.0 | 0.00 | 0.00 | 0.00 | 56 | 1010.9 |
| 20260503222823 | 68 | 207 | 4.0 | 11.0 | 0.00 | 0.00 | 0.00 | 56 | 1010.9 |
| 20260503222744 | 69 | 251 | 4.0 | 11.0 | 0.00 | 0.00 | 0.00 | 57 | 1010.9 |
| 20260503222644 | 68 | 266 | 4.0 | 11.0 | 0.00 | 0.00 | 0.00 | 57 | 1010.9 |
| 20260503222539 | 68 | 253 | 4.0 | 11.0 | 0.00 | 0.00 | 0.00 | 57 | 1010.9 |
| 20260503222438 | 68 | 232 | 4.0 | 11.0 | 0.00 | 0.00 | 0.00 | 57 | 1011.0 |
| 20260503222338 | 68 | 226 | 4.0 | 11.0 | 0.00 | 0.00 | 0.00 | 57 | 1011.0 |
| 20260503222320 | 68 | 274 | 4.0 | 11.0 | 0.00 | 0.00 | 0.00 | 57 | 1011.0 |
| 20260503222238 | 68 | 239 | 4.0 | 11.0 | 0.00 | 0.00 | 0.00 | 56 | 1011.0 |
| 20260503222137 | 69 | 245 | 4.0 | 11.0 | 0.00 | 0.00 | 0.00 | 56 | 1011.0 |
| 20260503222034 | 69 | 176 | 4.0 | 11.0 | 0.00 | 0.00 | 0.00 | 57 | 1011.0 |
| 20260503221932 | 68 | 177 | 4.0 | 12.0 | 0.00 | 0.00 | 0.00 | 57 | 1011.0 |
| 20260503221832 | 68 | 258 | 4.0 | 12.0 | 0.00 | 0.00 | 0.00 | 56 | 1011.0 |
| 20260503221812 | 68 | 257 | 4.0 | 12.0 | 0.00 | 0.00 | 0.00 | 56 | 1011.0 |
| 20260503221732 | 68 | 283 | 4.0 | 12.0 | 0.00 | 0.00 | 0.00 | 57 | 1011.0 |
| 20260503221631 | 69 | 216 | 5.0 | 12.0 | 0.00 | 0.00 | 0.00 | 57 | 1011.1 |
| 20260503221526 | 69 | 240 | 5.0 | 13.0 | 0.00 | 0.00 | 0.00 | 56 | 1011.0 |
| 20260503221426 | 69 | 238 | 5.0 | 13.0 | 0.00 | 0.00 | 0.00 | 57 | 1011.1 |
| 20260503221326 | 69 | 233 | 5.0 | 13.0 | 0.00 | 0.00 | 0.00 | 57 | 1011.0 |
| 20260503221304 | 69 | 225 | 5.0 | 13.0 | 0.00 | 0.00 | 0.00 | 57 | 1011.0 |
| 20260503221227 | 69 | 314 | 5.0 | 13.0 | 0.00 | 0.00 | 0.00 | 56 | 1011.0 |
| 20260503221125 | 69 | 263 | 5.0 | 13.0 | 0.00 | 0.00 | 0.00 | 56 | 1011.0 |
| 20260503221024 | 69 | 259 | 4.0 | 13.0 | 0.00 | 0.00 | 0.00 | 57 | 1011.1 |
| 20260503220924 | 69 | 155 | 4.0 | 13.0 | 0.00 | 0.00 | 0.00 | 56 | 1011.1 |
| 20260503220824 | 69 | 148 | 4.0 | 14.0 | 0.00 | 0.00 | 0.00 | 55 | 1011.1 |
| 20260503220802 | 69 | 242 | 4.0 | 14.0 | 0.00 | 0.00 | 0.00 | 55 | 1011.1 |
| 20260503220724 | 69 | 256 | 4.0 | 14.0 | 0.00 | 0.00 | 0.00 | 55 | 1011.1 |
| 20260503220624 | 70 | 239 | 4.0 | 14.0 | 0.00 | 0.00 | 0.00 | 55 | 1011.1 |
| 20260503220523 | 70 | 236 | 3.0 | 14.0 | 0.00 | 0.00 | 0.00 | 56 | 1011.1 |
| 20260503220421 | 70 | 252 | 3.0 | 14.0 | 0.00 | 0.00 | 0.00 | 56 | 1011.1 |
| 20260503220322 | 70 | 204 | 4.0 | 14.0 | 0.00 | 0.00 | 0.00 | 57 | 1011.1 |
| 20260503220259 | 70 | 219 | 4.0 | 14.0 | 0.00 | 0.00 | 0.00 | 58 | 1011.1 |
| 20260503220252 | 70 | 232 | 4.0 | 14.0 | 0.00 | 0.00 | 0.00 | 57 | 1011.1 |
| 20260503220222 | 70 | 219 | 4.0 | 14.0 | 0.00 | 0.00 | 0.00 | 58 | 1011.1 |
| 20260503220122 | 70 | 253 | 5.0 | 14.0 | 0.00 | 0.00 | 0.00 | 57 | 1011.1 |
| 20260503220020 | 69 | 229 | 5.0 | 14.0 | 0.00 | 0.00 | 0.00 | 57 | 1011.1 |
| 20260503215918 | 69 | 267 | 5.0 | 14.0 | 0.00 | 0.00 | 0.00 | 57 | 1011.2 |
| 20260503215818 | 69 | 169 | 5.0 | 13.0 | 0.00 | 0.00 | 0.00 | 57 | 1011.2 |
| 20260503215749 | 69 | 217 | 5.0 | 13.0 | 0.00 | 0.00 | 0.00 | 57 | 1011.2 |
| 20260503215718 | 69 | 139 | 5.0 | 13.0 | 0.00 | 0.00 | 0.00 | 58 | 1011.2 |
| 20260503215617 | 69 | 122 | 5.0 | 13.0 | 0.00 | 0.00 | 0.00 | 58 | 1011.2 |
| 20260503215518 | 69 | 169 | 5.0 | 13.0 | 0.00 | 0.00 | 0.00 | 58 | 1011.2 |
| 20260503215417 | 69 | 240 | 5.0 | 13.0 | 0.00 | 0.00 | 0.00 | 58 | 1011.3 |
| 20260503215312 | 69 | 218 | 5.0 | 13.0 | 0.00 | 0.00 | 0.00 | 58 | 1011.3 |
| 20260503215249 | 69 | 231 | 5.0 | 13.0 | 0.00 | 0.00 | 0.00 | 58 | 1011.3 |
| 20260503215212 | 69 | 219 | 5.0 | 13.0 | 0.00 | 0.00 | 0.00 | 57 | 1011.3 |
| 20260503215117 | 69 | 243 | 5.0 | 13.0 | 0.00 | 0.00 | 0.00 | 57 | 1011.3 |
| 20260503215012 | 69 | 281 | 5.0 | 13.0 | 0.00 | 0.00 | 0.00 | 58 | 1011.3 |
| 20260503214910 | 69 | 104 | 4.0 | 12.0 | 0.00 | 0.00 | 0.00 | 58 | 1011.4 |
| 20260503214804 | 69 | 245 | 4.0 | 12.0 | 0.00 | 0.00 | 0.00 | 59 | 1011.4 |
| 20260503214751 | 69 | 5 | 4.0 | 12.0 | 0.00 | 0.00 | 0.00 | 59 | 1011.4 |
| 20260503214703 | 69 | 143 | 5.0 | 12.0 | 0.00 | 0.00 | 0.00 | 60 | 1011.3 |
| 20260503214604 | 68 | 244 | 5.0 | 12.0 | 0.00 | 0.00 | 0.00 | 59 | 1011.3 |
| 20260503214503 | 68 | 242 | 5.0 | 12.0 | 0.00 | 0.00 | 0.00 | 59 | 1011.4 |
| 20260503214403 | 68 | 210 | 5.0 | 12.0 | 0.00 | 0.00 | 0.00 | 59 | 1011.3 |
| 20260503214300 | 68 | 233 | 5.0 | 12.0 | 0.00 | 0.00 | 0.00 | 58 | 1011.4 |
| 20260503214253 | 68 | 231 | 5.0 | 12.0 | 0.00 | 0.00 | 0.00 | 59 | 1011.4 |
| 20260503214158 | 68 | 242 | 5.0 | 13.0 | 0.00 | 0.00 | 0.00 | 60 | 1011.4 |
| 20260503214057 | 68 | 252 | 5.0 | 15.0 | 0.00 | 0.00 | 0.00 | 61 | 1011.3 |
| 20260503213957 | 68 | 257 | 5.0 | 15.0 | 0.00 | 0.00 | 0.00 | 61 | 1011.3 |
| 20260503213858 | 68 | 236 | 5.0 | 15.0 | 0.00 | 0.00 | 0.00 | 61 | 1011.3 |
| 20260503213800 | 68 | 269 | 6.0 | 15.0 | 0.00 | 0.00 | 0.00 | 60 | 1011.4 |
| 20260503213754 | 68 | 232 | 6.0 | 15.0 | 0.00 | 0.00 | 0.00 | 60 | 1011.4 |
| 20260503213658 | 68 | 235 | 5.0 | 15.0 | 0.00 | 0.00 | 0.00 | 60 | 1011.4 |
| 20260503213558 | 67 | 110 | 5.0 | 15.0 | 0.00 | 0.00 | 0.00 | 61 | 1011.3 |
| 20260503213458 | 67 | 243 | 5.0 | 15.0 | 0.00 | 0.00 | 0.00 | 59 | 1011.3 |
| 20260503213357 | 68 | 240 | 5.0 | 15.0 | 0.00 | 0.00 | 0.00 | 59 | 1011.3 |
| 20260503213258 | 68 | 263 | 5.0 | 15.0 | 0.00 | 0.00 | 0.00 | 58 | 1011.4 |
| 20260503213250 | 68 | 233 | 5.0 | 15.0 | 0.00 | 0.00 | 0.00 | 58 | 1011.4 |
| 20260503213158 | 68 | 245 | 4.0 | 15.0 | 0.00 | 0.00 | 0.00 | 59 | 1011.4 |
| 20260503213058 | 68 | 214 | 4.0 | 11.0 | 0.00 | 0.00 | 0.00 | 60 | 1011.4 |
| 20260503213008 | 68 | 217 | 4.0 | 12.0 | 0.00 | 0.00 | 0.00 | 61 | 1011.4 |
| 20260503212959 | 68 | 219 | 5.0 | 12.0 | 0.00 | 0.00 | 0.00 | 60 | 1011.3 |
| 20260503212905 | 68 | 136 | 4.0 | 12.0 | 0.00 | 0.00 | 0.00 | 60 | 1011.3 |
| 20260503212857 | 68 | 232 | 4.0 | 12.0 | 0.00 | 0.00 | 0.00 | 61 | 1011.4 |
| 20260503212657 | 67 | 231 | 4.0 | 12.0 | 0.00 | 0.00 | 0.00 | 62 | 1011.3 |
| 20260503212552 | 67 | 316 | 5.0 | 14.0 | 0.00 | 0.00 | 0.00 | 62 | 1011.2 |
| 20260503212452 | 67 | 280 | 6.0 | 14.0 | 0.00 | 0.00 | 0.00 | 60 | 1011.4 |
| 20260503212352 | 67 | 245 | 6.0 | 14.0 | 0.00 | 0.00 | 0.00 | 62 | 1011.4 |
| 20260503212251 | 67 | 222 | 6.0 | 14.0 | 0.00 | 0.00 | 0.00 | 61 | 1011.4 |
| 20260503212150 | 67 | 217 | 6.0 | 14.0 | 0.00 | 0.00 | 0.00 | 60 | 1011.4 |
| 20260503212043 | 67 | 235 | 6.0 | 15.0 | 0.00 | 0.00 | 0.00 | 61 | 1011.5 |
| 20260503211944 | 67 | 259 | 6.0 | 15.0 | 0.00 | 0.00 | 0.00 | 61 | 1011.4 |
| 20260503211844 | 67 | 266 | 7.0 | 15.0 | 0.00 | 0.00 | 0.00 | 61 | 1011.5 |
| 20260503211750 | 67 | 225 | 7.0 | 15.0 | 0.00 | 0.00 | 0.00 | 60 | 1011.5 |
| 20260503211744 | 67 | 253 | 7.0 | 15.0 | 0.00 | 0.00 | 0.00 | 60 | 1011.5 |
| 20260503211643 | 67 | 210 | 6.0 | 15.0 | 0.00 | 0.00 | 0.00 | 60 | 1011.5 |
| 20260503211544 | 68 | 240 | 6.0 | 15.0 | 0.00 | 0.00 | 0.00 | 60 | 1011.5 |
| 20260503211444 | 68 | 225 | 6.0 | 15.0 | 0.00 | 0.00 | 0.00 | 60 | 1011.5 |
| 20260503211344 | 68 | 271 | 6.0 | 15.0 | 0.00 | 0.00 | 0.00 | 61 | 1011.5 |
| 20260503211251 | 68 | 229 | 5.0 | 15.0 | 0.00 | 0.00 | 0.00 | 61 | 1011.6 |
| 20260503211244 | 68 | 225 | 5.0 | 15.0 | 0.00 | 0.00 | 0.00 | 61 | 1011.6 |
| 20260503211143 | 68 | 139 | 5.0 | 15.0 | 0.00 | 0.00 | 0.00 | 61 | 1011.5 |
| 20260503211044 | 68 | 205 | 4.0 | 13.0 | 0.00 | 0.00 | 0.00 | 61 | 1011.6 |
| 20260503210942 | 68 | 170 | 4.0 | 13.0 | 0.00 | 0.00 | 0.00 | 60 | 1011.7 |
| 20260503210842 | 68 | 207 | 4.0 | 13.0 | 0.00 | 0.00 | 0.00 | 60 | 1011.7 |
| 20260503210749 | 68 | 204 | 3.0 | 11.0 | 0.00 | 0.00 | 0.00 | 61 | 1011.7 |
| 20260503210741 | 68 | 239 | 3.0 | 11.0 | 0.00 | 0.00 | 0.00 | 61 | 1011.7 |
| 20260503210640 | 68 | 264 | 3.0 | 11.0 | 0.00 | 0.00 | 0.00 | 61 | 1011.7 |
| 20260503210539 | 68 | 241 | 3.0 | 11.0 | 0.00 | 0.00 | 0.00 | 60 | 1011.7 |
| 20260503210510 | 68 | 197 | 3.0 | 11.0 | 0.00 | 0.00 | 0.00 | 60 | 1011.7 |
| 20260503210437 | 68 | 191 | 3.0 | 11.0 | 0.00 | 0.00 | 0.00 | 61 | 1011.7 |
| 20260503210400 | 68 | 217 | 3.0 | 11.0 | 0.00 | 0.00 | 0.00 | 60 | 1011.7 |
| 20260503210238 | 68 | 215 | 3.0 | 11.0 | 0.00 | 0.00 | 0.00 | 60 | 1011.7 |
| 20260503210137 | 68 | 224 | 3.0 | 11.0 | 0.00 | 0.00 | 0.00 | 60 | 1011.7 |
| 20260503210037 | 68 | 267 | 3.0 | 11.0 | 0.00 | 0.00 | 0.00 | 60 | 1011.8 |
| 20260503210007 | 68 | 226 | 4.0 | 13.0 | 0.00 | 0.00 | 0.00 | 61 | 1011.8 |
| 20260503205938 | 68 | 235 | 4.0 | 13.0 | 0.00 | 0.00 | 0.00 | 60 | 1011.8 |
| 20260503205901 | 68 | 248 | 4.0 | 13.0 | 0.00 | 0.00 | 0.00 | 60 | 1011.8 |
| 20260503205731 | 67 | 229 | 4.0 | 13.0 | 0.00 | 0.00 | 0.00 | 62 | 1011.7 |
| 20260503205631 | 67 | 243 | 4.0 | 13.0 | 0.00 | 0.00 | 0.00 | 62 | 1011.8 |
| 20260503205532 | 67 | 219 | 4.0 | 13.0 | 0.00 | 0.00 | 0.00 | 62 | 1011.8 |
| 20260503205517 | 67 | 233 | 5.0 | 15.0 | 0.00 | 0.00 | 0.00 | 61 | 1011.8 |
| 20260503205430 | 67 | 219 | 5.0 | 13.0 | 0.00 | 0.00 | 0.00 | 62 | 1011.8 |
| 20260503205401 | 67 | 226 | 5.0 | 15.0 | 0.00 | 0.00 | 0.00 | 60 | 1011.8 |
| 20260503205226 | 67 | 219 | 5.0 | 15.0 | 0.00 | 0.00 | 0.00 | 61 | 1011.8 |
| 20260503205124 | 67 | 273 | 5.0 | 15.0 | 0.00 | 0.00 | 0.00 | 61 | 1011.8 |
| 20260503205023 | 67 | 219 | 5.0 | 15.0 | 0.00 | 0.00 | 0.00 | 61 | 1011.7 |
| 20260503204923 | 67 | 239 | 5.0 | 15.0 | 0.00 | 0.00 | 0.00 | 62 | 1011.7 |
| 20260503204824 | 66 | 263 | 6.0 | 15.0 | 0.00 | 0.00 | 0.00 | 63 | 1011.8 |
| 20260503204742 | 66 | 245 | 6.0 | 15.0 | 0.00 | 0.00 | 0.00 | 62 | 1011.8 |
| 20260503204726 | 66 | 242 | 6.0 | 15.0 | 0.00 | 0.00 | 0.00 | 62 | 1011.8 |
| 20260503204623 | 66 | 239 | 6.0 | 15.0 | 0.00 | 0.00 | 0.00 | 62 | 1011.8 |
| 20260503204524 | 66 | 260 | 6.0 | 15.0 | 0.00 | 0.00 | 0.00 | 61 | 1011.7 |
| 20260503204424 | 66 | 231 | 5.0 | 15.0 | 0.00 | 0.00 | 0.00 | 61 | 1011.8 |
| 20260503204324 | 66 | 226 | 6.0 | 14.0 | 0.00 | 0.00 | 0.00 | 62 | 1011.8 |
| 20260503204239 | 66 | 309 | 6.0 | 14.0 | 0.00 | 0.00 | 0.00 | 61 | 1011.8 |
| 20260503204222 | 66 | 221 | 6.0 | 14.0 | 0.00 | 0.00 | 0.00 | 61 | 1011.8 |
| 20260503204121 | 67 | 267 | 6.0 | 14.0 | 0.00 | 0.00 | 0.00 | 61 | 1011.8 |
| 20260503204022 | 67 | 212 | 6.0 | 17.0 | 0.00 | 0.00 | 0.00 | 61 | 1011.8 |
| 20260503203922 | 67 | 248 | 6.0 | 17.0 | 0.00 | 0.00 | 0.00 | 61 | 1011.8 |
| 20260503203819 | 67 | 198 | 5.0 | 17.0 | 0.00 | 0.00 | 0.00 | 61 | 1011.8 |
| 20260503203740 | 67 | 239 | 5.0 | 17.0 | 0.00 | 0.00 | 0.00 | 61 | 1011.8 |
| 20260503203717 | 67 | 312 | 5.0 | 17.0 | 0.00 | 0.00 | 0.00 | 61 | 1011.8 |
| 20260503203618 | 67 | 291 | 5.0 | 17.0 | 0.00 | 0.00 | 0.00 | 61 | 1011.8 |
| 20260503203518 | 67 | 256 | 4.0 | 17.0 | 0.00 | 0.00 | 0.00 | 60 | 1011.8 |
| 20260503203417 | 68 | 259 | 4.0 | 17.0 | 0.00 | 0.00 | 0.00 | 60 | 1011.9 |
| 20260503203318 | 68 | 215 | 3.0 | 17.0 | 0.00 | 0.00 | 0.00 | 59 | 1011.8 |
| 20260503203246 | 68 | 239 | 3.0 | 17.0 | 0.00 | 0.00 | 0.00 | 58 | 1011.9 |
| 20260503203217 | 68 | 240 | 3.0 | 17.0 | 0.00 | 0.00 | 0.00 | 58 | 1011.9 |
| 20260503203111 | 69 | 239 | 2.0 | 17.0 | 0.00 | 0.00 | 0.00 | 59 | 1011.8 |
| 20260503203011 | 69 | 307 | 2.0 | 8.0 | 0.00 | 0.00 | 0.00 | 60 | 1011.8 |
| 20260503202912 | 68 | 221 | 3.0 | 8.0 | 0.00 | 0.00 | 0.00 | 62 | 1011.9 |
| 20260503202812 | 68 | 322 | 3.0 | 8.0 | 0.00 | 0.00 | 0.00 | 61 | 1011.9 |
| 20260503202744 | 68 | 195 | 3.0 | 8.0 | 0.00 | 0.00 | 0.00 | 61 | 1011.9 |
| 20260503202710 | 68 | 219 | 3.0 | 8.0 | 0.00 | 0.00 | 0.00 | 61 | 1011.9 |
| 20260503202604 | 68 | 248 | 3.0 | 8.0 | 0.00 | 0.00 | 0.00 | 61 | 1011.8 |
| 20260503202504 | 68 | 312 | 4.0 | 9.0 | 0.00 | 0.00 | 0.00 | 60 | 1011.9 |
| 20260503202403 | 68 | 211 | 4.0 | 9.0 | 0.00 | 0.00 | 0.00 | 60 | 1011.9 |
| 20260503202304 | 68 | 219 | 5.0 | 13.0 | 0.00 | 0.00 | 0.00 | 60 | 1011.8 |
| 20260503202246 | 68 | 236 | 5.0 | 13.0 | 0.00 | 0.00 | 0.00 | 60 | 1011.8 |
| 20260503202203 | 68 | 236 | 5.0 | 13.0 | 0.00 | 0.00 | 0.00 | 60 | 1011.8 |
| 20260503202104 | 68 | 250 | 5.0 | 13.0 | 0.00 | 0.00 | 0.00 | 61 | 1011.9 |
| 20260503202013 | 67 | 224 | 5.0 | 13.0 | 0.00 | 0.00 | 0.00 | 61 | 1011.8 |
| 20260503202004 | 68 | 207 | 5.0 | 13.0 | 0.00 | 0.00 | 0.00 | 61 | 1011.9 |
| 20260503201904 | 67 | 204 | 5.0 | 13.0 | 0.00 | 0.00 | 0.00 | 61 | 1011.8 |
| 20260503201846 | 67 | 231 | 5.0 | 13.0 | 0.00 | 0.00 | 0.00 | 61 | 1011.8 |
| 20260503201704 | 67 | 242 | 5.0 | 13.0 | 0.00 | 0.00 | 0.00 | 62 | 1011.8 |
| 20260503201603 | 67 | 214 | 5.0 | 13.0 | 0.00 | 0.00 | 0.00 | 60 | 1011.8 |
| 20260503201501 | 67 | 256 | 5.0 | 13.0 | 0.00 | 0.00 | 0.00 | 60 | 1011.8 |
| 20260503201402 | 67 | 233 | 5.0 | 13.0 | 0.00 | 0.00 | 0.00 | 60 | 1011.8 |
| 20260503201302 | 67 | 266 | 4.0 | 13.0 | 0.00 | 0.00 | 0.00 | 60 | 1011.8 |
| 20260503201240 | 67 | 256 | 4.0 | 13.0 | 0.00 | 0.00 | 0.00 | 60 | 1011.7 |
| 20260503201200 | 67 | 235 | 4.0 | 12.0 | 0.00 | 0.00 | 0.00 | 61 | 1011.7 |
| 20260503201100 | 67 | 218 | 4.0 | 12.0 | 0.00 | 0.00 | 0.00 | 61 | 1011.8 |
| 20260503200958 | 67 | 200 | 4.0 | 12.0 | 0.00 | 0.00 | 0.00 | 61 | 1011.8 |
| 20260503200858 | 67 | 303 | 3.0 | 12.0 | 0.00 | 0.00 | 0.00 | 61 | 1011.8 |
| 20260503200758 | 67 | 217 | 4.0 | 9.0 | 0.00 | 0.00 | 0.00 | 62 | 1011.8 |
| 20260503200741 | 67 | 233 | 4.0 | 10.0 | 0.00 | 0.00 | 0.00 | 62 | 1011.8 |
| 20260503200658 | 67 | 225 | 4.0 | 10.0 | 0.00 | 0.00 | 0.00 | 61 | 1011.8 |
| 20260503200558 | 67 | 176 | 3.0 | 10.0 | 0.00 | 0.00 | 0.00 | 60 | 1011.8 |
| 20260503200457 | 67 | 228 | 3.0 | 10.0 | 0.00 | 0.00 | 0.00 | 61 | 1011.8 |
| 20260503200352 | 67 | 236 | 3.0 | 10.0 | 0.00 | 0.00 | 0.00 | 61 | 1011.9 |
| 20260503200251 | 67 | 252 | 4.0 | 13.0 | 0.00 | 0.00 | 0.00 | 60 | 1011.8 |
| 20260503200240 | 67 | 278 | 4.0 | 13.0 | 0.00 | 0.00 | 0.00 | 60 | 1011.8 |
| 20260503200152 | 67 | 248 | 4.0 | 13.0 | 0.00 | 0.00 | 0.00 | 61 | 1011.8 |
| 20260503200052 | 67 | 165 | 3.0 | 13.0 | 0.00 | 0.00 | 0.00 | 61 | 1011.8 |
| 20260503195950 | 67 | 270 | 4.0 | 13.0 | 0.00 | 0.00 | 0.00 | 60 | 1011.8 |
| 20260503195844 | 68 | 278 | 4.0 | 13.0 | 0.00 | 0.00 | 0.00 | 60 | 1011.8 |
| 20260503195747 | 68 | 305 | 4.0 | 13.0 | 0.00 | 0.00 | 0.00 | 61 | 1011.8 |
| 20260503195741 | 68 | 285 | 4.0 | 13.0 | 0.00 | 0.00 | 0.00 | 61 | 1011.8 |
| 20260503195644 | 67 | 172 | 4.0 | 13.0 | 0.00 | 0.00 | 0.00 | 62 | 1011.8 |
| 20260503195543 | 67 | 290 | 4.0 | 13.0 | 0.00 | 0.00 | 0.00 | 62 | 1011.8 |
| 20260503195443 | 67 | 269 | 4.0 | 13.0 | 0.00 | 0.00 | 0.00 | 63 | 1011.8 |
| 20260503195339 | 67 | 271 | 4.0 | 13.0 | 0.00 | 0.00 | 0.00 | 62 | 1011.8 |
| 20260503195239 | 67 | 278 | 3.0 | 11.0 | 0.00 | 0.00 | 0.00 | 62 | 1011.8 |
| 20260503195138 | 67 | 238 | 3.0 | 11.0 | 0.00 | 0.00 | 0.00 | 62 | 1011.7 |
| 20260503195038 | 67 | 266 | 3.0 | 11.0 | 0.00 | 0.00 | 0.00 | 62 | 1011.8 |
| 20260503194935 | 67 | 215 | 4.0 | 13.0 | 0.00 | 0.00 | 0.00 | 62 | 1011.7 |
| 20260503194830 | 66 | 205 | 4.0 | 13.0 | 0.00 | 0.00 | 0.00 | 62 | 1011.8 |
| 20260503194741 | 66 | 274 | 4.0 | 13.0 | 0.00 | 0.00 | 0.00 | 63 | 1011.8 |
| 20260503194729 | 66 | 274 | 4.0 | 13.0 | 0.00 | 0.00 | 0.00 | 62 | 1011.8 |
| 20260503194628 | 66 | 221 | 3.0 | 13.0 | 0.00 | 0.00 | 0.00 | 63 | 1011.8 |
| 20260503194528 | 66 | 246 | 4.0 | 13.0 | 0.00 | 0.00 | 0.00 | 63 | 1011.8 |
| 20260503194427 | 66 | 236 | 5.0 | 13.0 | 0.00 | 0.00 | 0.00 | 64 | 1011.8 |
| 20260503194322 | 65 | 217 | 5.0 | 16.0 | 0.00 | 0.00 | 0.00 | 64 | 1011.8 |
| 20260503194239 | 65 | 285 | 5.0 | 16.0 | 0.00 | 0.00 | 0.00 | 64 | 1011.8 |
| 20260503194222 | 65 | 242 | 5.0 | 16.0 | 0.00 | 0.00 | 0.00 | 63 | 1011.8 |
| 20260503194122 | 65 | 255 | 5.0 | 16.0 | 0.00 | 0.00 | 0.00 | 62 | 1011.8 |
| 20260503194022 | 65 | 226 | 5.0 | 16.0 | 0.00 | 0.00 | 0.00 | 63 | 1011.8 |
| 20260503193919 | 65 | 236 | 5.0 | 16.0 | 0.00 | 0.00 | 0.00 | 63 | 1011.8 |
| 20260503193814 | 65 | 228 | 6.0 | 16.0 | 0.00 | 0.00 | 0.00 | 64 | 1011.8 |
| 20260503193740 | 65 | 300 | 6.0 | 16.0 | 0.00 | 0.00 | 0.00 | 64 | 1011.8 |
| 20260503193713 | 65 | 301 | 6.0 | 16.0 | 0.00 | 0.00 | 0.00 | 64 | 1011.8 |
| 20260503193614 | 65 | 255 | 7.0 | 16.0 | 0.00 | 0.00 | 0.00 | 63 | 1011.9 |
| 20260503193514 | 65 | 248 | 6.0 | 16.0 | 0.00 | 0.00 | 0.00 | 63 | 1011.9 |
| 20260503193413 | 65 | 197 | 6.0 | 16.0 | 0.00 | 0.00 | 0.00 | 62 | 1011.9 |
| 20260503193314 | 65 | 234 | 6.0 | 15.0 | 0.00 | 0.00 | 0.00 | 63 | 1012.0 |
| 20260503193231 | 65 | 203 | 6.0 | 15.0 | 0.00 | 0.00 | 0.00 | 63 | 1012.0 |
| 20260503193213 | 65 | 259 | 6.0 | 15.0 | 0.00 | 0.00 | 0.00 | 63 | 1012.0 |
| 20260503193114 | 65 | 238 | 7.0 | 15.0 | 0.00 | 0.00 | 0.00 | 63 | 1012.0 |
| 20260503193014 | 65 | 259 | 7.0 | 15.0 | 0.00 | 0.00 | 0.00 | 62 | 1012.0 |
| 20260503192913 | 65 | 263 | 6.0 | 15.0 | 0.00 | 0.00 | 0.00 | 63 | 1012.0 |
| 20260503192814 | 65 | 240 | 6.0 | 12.0 | 0.00 | 0.00 | 0.00 | 62 | 1012.0 |
| 20260503192729 | 65 | 238 | 7.0 | 15.0 | 0.00 | 0.00 | 0.00 | 63 | 1012.0 |
| 20260503192712 | 65 | 226 | 7.0 | 15.0 | 0.00 | 0.00 | 0.00 | 63 | 1012.0 |
| 20260503192611 | 65 | 221 | 7.0 | 15.0 | 0.00 | 0.00 | 0.00 | 63 | 1012.0 |
| 20260503192510 | 65 | 166 | 7.0 | 15.0 | 0.00 | 0.00 | 0.00 | 63 | 1012.0 |
| 20260503192456 | 65 | 246 | 6.0 | 15.0 | 0.00 | 0.00 | 0.00 | 64 | 1011.9 |
| 20260503192409 | 65 | 226 | 6.0 | 15.0 | 0.00 | 0.00 | 0.00 | 64 | 1011.9 |
| 20260503192341 | 65 | 190 | 6.0 | 15.0 | 0.00 | 0.00 | 0.00 | 64 | 1012.0 |
| 20260503192208 | 65 | 277 | 6.0 | 15.0 | 0.00 | 0.00 | 0.00 | 64 | 1011.9 |
| 20260503192108 | 64 | 149 | 6.0 | 15.0 | 0.00 | 0.00 | 0.00 | 63 | 1012.0 |
| 20260503192008 | 64 | 242 | 6.0 | 15.0 | 0.00 | 0.00 | 0.00 | 63 | 1012.0 |
| 20260503191907 | 64 | 233 | 5.0 | 15.0 | 0.00 | 0.00 | 0.00 | 63 | 1012.0 |
| 20260503191808 | 65 | 270 | 5.0 | 15.0 | 0.00 | 0.00 | 0.00 | 63 | 1012.0 |
| 20260503191734 | 65 | 253 | 4.0 | 14.0 | 0.00 | 0.00 | 0.00 | 63 | 1012.1 |
| 20260503191707 | 65 | 238 | 4.0 | 14.0 | 0.00 | 0.00 | 0.00 | 63 | 1012.1 |
| 20260503191602 | 65 | 236 | 4.0 | 10.0 | 0.00 | 0.00 | 0.00 | 63 | 1012.1 |
| 20260503191502 | 65 | 225 | 4.0 | 10.0 | 0.00 | 0.00 | 0.00 | 64 | 1012.1 |
| 20260503191451 | 65 | 245 | 4.0 | 11.0 | 0.00 | 0.00 | 0.00 | 64 | 1012.2 |
| 20260503191402 | 65 | 174 | 4.0 | 11.0 | 0.00 | 0.00 | 0.00 | 64 | 1012.1 |
| 20260503191339 | 65 | 233 | 4.0 | 11.0 | 0.00 | 0.00 | 0.00 | 63 | 1012.1 |
| 20260503191200 | 65 | 239 | 4.0 | 11.0 | 0.00 | 0.00 | 0.00 | 64 | 1012.2 |
| 20260503191056 | 65 | 225 | 4.0 | 11.0 | 0.00 | 0.00 | 0.00 | 65 | 1012.1 |
| 20260503190954 | 65 | 234 | 4.0 | 11.0 | 0.00 | 0.00 | 0.00 | 65 | 1012.1 |
| 20260503190854 | 65 | 274 | 4.0 | 11.0 | 0.00 | 0.00 | 0.00 | 65 | 1012.2 |
| 20260503190754 | 64 | 232 | 4.0 | 11.0 | 0.00 | 0.00 | 0.00 | 64 | 1012.1 |
| 20260503190652 | 64 | 273 | 4.0 | 13.0 | 0.00 | 0.00 | 0.00 | 64 | 1012.1 |
| 20260503190550 | 65 | 231 | 4.0 | 13.0 | 0.00 | 0.00 | 0.00 | 64 | 1012.2 |
| 20260503190450 | 65 | 236 | 4.0 | 13.0 | 0.00 | 0.00 | 0.00 | 65 | 1012.1 |
| 20260503190348 | 65 | 239 | 4.0 | 13.0 | 0.00 | 0.00 | 0.00 | 65 | 1012.2 |
| 20260503190248 | 64 | 239 | 4.0 | 13.0 | 0.00 | 0.00 | 0.00 | 65 | 1012.2 |
| 20260503190229 | 64 | 238 | 4.0 | 13.0 | 0.00 | 0.00 | 0.00 | 65 | 1012.2 |
| 20260503190145 | 64 | 226 | 4.0 | 13.0 | 0.00 | 0.00 | 0.00 | 65 | 1012.2 |
| 20260503190040 | 64 | 243 | 4.0 | 13.0 | 0.00 | 0.00 | 0.00 | 65 | 1012.1 |
| 20260503185939 | 64 | 225 | 4.0 | 13.0 | 0.00 | 0.00 | 0.00 | 65 | 1012.2 |
| 20260503185840 | 64 | 184 | 4.0 | 13.0 | 0.00 | 0.00 | 0.00 | 65 | 1012.2 |
| 20260503185738 | 64 | 260 | 4.0 | 16.0 | 0.00 | 0.00 | 0.00 | 66 | 1012.2 |
| 20260503185730 | 64 | 274 | 4.0 | 16.0 | 0.00 | 0.00 | 0.00 | 66 | 1012.2 |
| 20260503185637 | 63 | 310 | 4.0 | 16.0 | 0.00 | 0.00 | 0.00 | 66 | 1012.2 |
| 20260503185531 | 63 | 243 | 4.0 | 16.0 | 0.00 | 0.00 | 0.00 | 66 | 1012.2 |
| 20260503185432 | 63 | 238 | 4.0 | 16.0 | 0.00 | 0.00 | 0.00 | 66 | 1012.2 |
| 20260503185331 | 63 | 158 | 4.0 | 16.0 | 0.00 | 0.00 | 0.00 | 68 | 1012.3 |
| 20260503185236 | 63 | 195 | 5.0 | 16.0 | 0.00 | 0.00 | 0.00 | 67 | 1012.2 |
| 20260503185230 | 63 | 217 | 5.0 | 16.0 | 0.00 | 0.00 | 0.00 | 67 | 1012.2 |
| 20260503185130 | 63 | 239 | 5.0 | 16.0 | 0.00 | 0.00 | 0.00 | 67 | 1012.2 |
| 20260503185023 | 62 | 250 | 6.0 | 16.0 | 0.00 | 0.00 | 0.00 | 68 | 1012.3 |
| 20260503184925 | 62 | 198 | 6.0 | 16.0 | 0.00 | 0.00 | 0.00 | 67 | 1012.3 |
| 20260503184824 | 62 | 250 | 5.0 | 16.0 | 0.00 | 0.00 | 0.00 | 67 | 1012.4 |
| 20260503184732 | 62 | 281 | 6.0 | 13.0 | 0.00 | 0.00 | 0.00 | 67 | 1012.3 |
| 20260503184725 | 62 | 242 | 6.0 | 13.0 | 0.00 | 0.00 | 0.00 | 67 | 1012.3 |
| 20260503184623 | 62 | 221 | 6.0 | 14.0 | 0.00 | 0.00 | 0.00 | 67 | 1012.3 |
| 20260503184520 | 62 | 215 | 6.0 | 14.0 | 0.00 | 0.00 | 0.00 | 68 | 1012.3 |
| 20260503184418 | 62 | 232 | 7.0 | 14.0 | 0.00 | 0.00 | 0.00 | 68 | 1012.3 |
| 20260503184318 | 62 | 232 | 6.0 | 14.0 | 0.00 | 0.00 | 0.00 | 68 | 1012.3 |
| 20260503184231 | 62 | 218 | 6.0 | 14.0 | 0.00 | 0.00 | 0.00 | 68 | 1012.3 |
| 20260503184218 | 62 | 248 | 6.0 | 14.0 | 0.00 | 0.00 | 0.00 | 68 | 1012.3 |
| 20260503184115 | 62 | 248 | 6.0 | 14.0 | 0.00 | 0.00 | 0.00 | 67 | 1012.3 |
| 20260503184010 | 62 | 255 | 6.0 | 14.0 | 0.00 | 0.00 | 0.00 | 68 | 1012.3 |
| 20260503183949 | 62 | 281 | 7.0 | 15.0 | 0.00 | 0.00 | 0.00 | 67 | 1012.3 |
| 20260503183909 | 62 | 226 | 7.0 | 15.0 | 0.00 | 0.00 | 0.00 | 68 | 1012.3 |
| 20260503183839 | 62 | 242 | 7.0 | 15.0 | 0.00 | 0.00 | 0.00 | 67 | 1012.3 |
| 20260503183708 | 62 | 194 | 7.0 | 15.0 | 0.00 | 0.00 | 0.00 | 67 | 1012.3 |
| 20260503183607 | 62 | 236 | 7.0 | 15.0 | 0.00 | 0.00 | 0.00 | 67 | 1012.3 |
| 20260503183501 | 62 | 162 | 7.0 | 15.0 | 0.00 | 0.00 | 0.00 | 67 | 1012.2 |
| 20260503183402 | 62 | 243 | 7.0 | 15.0 | 0.00 | 0.00 | 0.00 | 68 | 1012.3 |
| 20260503183302 | 62 | 243 | 7.0 | 15.0 | 0.00 | 0.00 | 0.00 | 68 | 1012.3 |
| 20260503183229 | 62 | 232 | 6.0 | 15.0 | 0.00 | 0.00 | 0.00 | 68 | 1012.2 |
| 20260503183201 | 62 | 211 | 6.0 | 15.0 | 0.00 | 0.00 | 0.00 | 68 | 1012.2 |
| 20260503183100 | 62 | 262 | 6.0 | 15.0 | 0.00 | 0.00 | 0.00 | 69 | 1012.3 |
| 20260503182954 | 62 | 232 | 6.0 | 15.0 | 0.00 | 0.00 | 0.00 | 68 | 1012.3 |
| 20260503182853 | 62 | 188 | 6.0 | 13.0 | 0.00 | 0.00 | 0.00 | 68 | 1012.3 |
| 20260503182754 | 62 | 248 | 6.0 | 13.0 | 0.00 | 0.00 | 0.00 | 68 | 1012.3 |
| 20260503182730 | 62 | 222 | 6.0 | 13.0 | 0.00 | 0.00 | 0.00 | 68 | 1012.3 |
| 20260503182654 | 62 | 240 | 6.0 | 13.0 | 0.00 | 0.00 | 0.00 | 69 | 1012.3 |
| 20260503182553 | 62 | 241 | 6.0 | 13.0 | 0.00 | 0.00 | 0.00 | 69 | 1012.3 |
| 20260503182450 | 62 | 264 | 6.0 | 13.0 | 0.00 | 0.00 | 0.00 | 70 | 1012.3 |
| 20260503182348 | 62 | 231 | 7.0 | 13.0 | 0.00 | 0.00 | 0.00 | 70 | 1012.3 |
| 20260503182247 | 61 | 123 | 7.0 | 13.0 | 0.00 | 0.00 | 0.00 | 70 | 1012.3 |
| 20260503182229 | 61 | 126 | 7.0 | 13.0 | 0.00 | 0.00 | 0.00 | 70 | 1012.3 |
| 20260503182148 | 61 | 143 | 7.0 | 13.0 | 0.00 | 0.00 | 0.00 | 69 | 1012.3 |
| 20260503182044 | 61 | 228 | 7.0 | 15.0 | 0.00 | 0.00 | 0.00 | 69 | 1012.3 |
| 20260503181942 | 61 | 204 | 8.0 | 15.0 | 0.00 | 0.00 | 0.00 | 69 | 1012.3 |
| 20260503181842 | 61 | 216 | 8.0 | 15.0 | 0.00 | 0.00 | 0.00 | 69 | 1012.3 |
| 20260503181741 | 61 | 214 | 7.0 | 15.0 | 0.00 | 0.00 | 0.00 | 70 | 1012.3 |
| 20260503181722 | 61 | 219 | 7.0 | 15.0 | 0.00 | 0.00 | 0.00 | 70 | 1012.3 |
| 20260503181642 | 61 | 246 | 7.0 | 15.0 | 0.00 | 0.00 | 0.00 | 69 | 1012.3 |
| 20260503181541 | 61 | 222 | 7.0 | 15.0 | 0.00 | 0.00 | 0.00 | 69 | 1012.3 |
| 20260503181436 | 61 | 200 | 7.0 | 16.0 | 0.00 | 0.00 | 0.00 | 70 | 1012.3 |
| 20260503181336 | 61 | 262 | 7.0 | 16.0 | 0.00 | 0.00 | 0.00 | 70 | 1012.4 |
| 20260503181236 | 61 | 256 | 7.0 | 16.0 | 0.00 | 0.00 | 0.00 | 69 | 1012.4 |
| 20260503181216 | 61 | 273 | 7.0 | 16.0 | 0.00 | 0.00 | 0.00 | 69 | 1012.4 |
| 20260503181136 | 61 | 203 | 7.0 | 16.0 | 0.00 | 0.00 | 0.00 | 70 | 1012.3 |
| 20260503181034 | 61 | 257 | 7.0 | 16.0 | 0.00 | 0.00 | 0.00 | 69 | 1012.3 |
| 20260503180928 | 61 | 274 | 6.0 | 16.0 | 0.00 | 0.00 | 0.00 | 69 | 1012.3 |
| 20260503180827 | 61 | 236 | 6.0 | 16.0 | 0.00 | 0.00 | 0.00 | 69 | 1012.3 |
| 20260503180729 | 61 | 224 | 5.0 | 16.0 | 0.00 | 0.00 | 0.00 | 69 | 1012.4 |
| 20260503180714 | 61 | 230 | 5.0 | 16.0 | 0.00 | 0.00 | 0.00 | 69 | 1012.4 |
| 20260503180628 | 61 | 232 | 5.0 | 16.0 | 0.00 | 0.00 | 0.00 | 70 | 1012.3 |
| 20260503180528 | 61 | 211 | 5.0 | 16.0 | 0.00 | 0.00 | 0.00 | 69 | 1012.3 |
| 20260503180424 | 61 | 232 | 4.0 | 13.0 | 0.00 | 0.00 | 0.00 | 69 | 1012.3 |
| 20260503180324 | 61 | 212 | 4.0 | 13.0 | 0.00 | 0.00 | 0.00 | 70 | 1012.2 |
| 20260503180227 | 61 | 266 | 5.0 | 16.0 | 0.00 | 0.00 | 0.00 | 70 | 1012.2 |
| 20260503180216 | 61 | 273 | 5.0 | 16.0 | 0.00 | 0.00 | 0.00 | 70 | 1012.2 |
| 20260503180124 | 61 | 236 | 5.0 | 16.0 | 0.00 | 0.00 | 0.00 | 70 | 1012.3 |
| 20260503180025 | 61 | 229 | 5.0 | 16.0 | 0.00 | 0.00 | 0.00 | 71 | 1012.3 |
| 20260503175924 | 61 | 242 | 5.0 | 16.0 | 0.00 | 0.00 | 0.00 | 70 | 1012.3 |
| 20260503175822 | 61 | 218 | 5.0 | 16.0 | 0.00 | 0.00 | 0.00 | 70 | 1012.3 |
| 20260503175725 | 61 | 228 | 5.0 | 16.0 | 0.00 | 0.00 | 0.00 | 71 | 1012.4 |
| 20260503175714 | 61 | 262 | 5.0 | 16.0 | 0.00 | 0.00 | 0.00 | 71 | 1012.4 |
| 20260503175622 | 61 | 243 | 5.0 | 16.0 | 0.00 | 0.00 | 0.00 | 71 | 1012.3 |
| 20260503175522 | 61 | 212 | 5.0 | 16.0 | 0.00 | 0.00 | 0.00 | 71 | 1012.3 |
| 20260503175421 | 61 | 208 | 5.0 | 16.0 | 0.00 | 0.00 | 0.00 | 71 | 1012.3 |
| 20260503175322 | 61 | 238 | 5.0 | 16.0 | 0.00 | 0.00 | 0.00 | 70 | 1012.4 |
| 20260503175224 | 61 | 250 | 5.0 | 13.0 | 0.00 | 0.00 | 0.00 | 70 | 1012.4 |
| 20260503175214 | 61 | 218 | 5.0 | 13.0 | 0.00 | 0.00 | 0.00 | 71 | 1012.4 |
| 20260503175121 | 61 | 250 | 5.0 | 11.0 | 0.00 | 0.00 | 0.00 | 71 | 1012.4 |
| 20260503175022 | 61 | 274 | 5.0 | 11.0 | 0.00 | 0.00 | 0.00 | 71 | 1012.4 |
| 20260503174921 | 61 | 236 | 5.0 | 11.0 | 0.00 | 0.00 | 0.00 | 71 | 1012.4 |
| 20260503174821 | 61 | 239 | 5.0 | 11.0 | 0.00 | 0.00 | 0.00 | 72 | 1012.4 |
| 20260503174722 | 60 | 269 | 6.0 | 11.0 | 0.00 | 0.00 | 0.00 | 71 | 1012.4 |
| 20260503174718 | 60 | 270 | 6.0 | 11.0 | 0.00 | 0.00 | 0.00 | 71 | 1012.4 |
| 20260503174616 | 60 | 243 | 6.0 | 11.0 | 0.00 | 0.00 | 0.00 | 72 | 1012.4 |
| 20260503174516 | 60 | 221 | 6.0 | 11.0 | 0.00 | 0.00 | 0.00 | 72 | 1012.5 |
| 20260503174441 | 60 | 224 | 6.0 | 13.0 | 0.00 | 0.00 | 0.00 | 71 | 1012.5 |
| 20260503174416 | 60 | 228 | 6.0 | 11.0 | 0.00 | 0.00 | 0.00 | 72 | 1012.5 |
| 20260503174325 | 60 | 221 | 6.0 | 11.0 | 0.00 | 0.00 | 0.00 | 72 | 1012.5 |
| 20260503174207 | 60 | 221 | 6.0 | 13.0 | 0.00 | 0.00 | 0.00 | 71 | 1012.5 |
| 20260503174108 | 60 | 242 | 6.0 | 13.0 | 0.00 | 0.00 | 0.00 | 71 | 1012.4 |
| 20260503174008 | 60 | 248 | 5.0 | 13.0 | 0.00 | 0.00 | 0.00 | 71 | 1012.4 |
| 20260503173907 | 60 | 177 | 5.0 | 13.0 | 0.00 | 0.00 | 0.00 | 72 | 1012.5 |
| 20260503173807 | 60 | 195 | 5.0 | 13.0 | 0.00 | 0.00 | 0.00 | 71 | 1012.5 |
| 20260503173714 | 60 | 208 | 5.0 | 13.0 | 0.00 | 0.00 | 0.00 | 72 | 1012.5 |
| 20260503173708 | 60 | 214 | 5.0 | 13.0 | 0.00 | 0.00 | 0.00 | 72 | 1012.5 |
| 20260503173608 | 60 | 219 | 5.0 | 13.0 | 0.00 | 0.00 | 0.00 | 72 | 1012.5 |
| 20260503173507 | 60 | 229 | 5.0 | 15.0 | 0.00 | 0.00 | 0.00 | 72 | 1012.4 |
| 20260503173408 | 60 | 197 | 6.0 | 16.0 | 0.00 | 0.00 | 0.00 | 72 | 1012.4 |
| 20260503173308 | 60 | 242 | 6.0 | 18.0 | 0.00 | 0.00 | 0.00 | 73 | 1012.4 |
| 20260503173215 | 60 | 290 | 7.0 | 18.0 | 0.00 | 0.00 | 0.00 | 73 | 1012.5 |
| 20260503173208 | 60 | 238 | 7.0 | 18.0 | 0.00 | 0.00 | 0.00 | 73 | 1012.5 |
| 20260503173107 | 60 | 183 | 7.0 | 18.0 | 0.00 | 0.00 | 0.00 | 73 | 1012.5 |
| 20260503173007 | 60 | 214 | 7.0 | 18.0 | 0.00 | 0.00 | 0.00 | 73 | 1012.4 |
| 20260503172906 | 60 | 200 | 6.0 | 18.0 | 0.00 | 0.00 | 0.00 | 72 | 1012.4 |
| 20260503172804 | 59 | 245 | 6.0 | 18.0 | 0.00 | 0.00 | 0.00 | 73 | 1012.4 |
| 20260503172715 | 59 | 239 | 6.0 | 18.0 | 0.00 | 0.00 | 0.00 | 73 | 1012.4 |
| 20260503172703 | 59 | 287 | 6.0 | 18.0 | 0.00 | 0.00 | 0.00 | 73 | 1012.4 |
| 20260503172601 | 59 | 228 | 5.0 | 18.0 | 0.00 | 0.00 | 0.00 | 72 | 1012.4 |
| 20260503172502 | 59 | 281 | 5.0 | 18.0 | 0.00 | 0.00 | 0.00 | 72 | 1012.4 |
| 20260503172402 | 60 | 243 | 5.0 | 17.0 | 0.00 | 0.00 | 0.00 | 73 | 1012.4 |
| 20260503172305 | 60 | 240 | 5.0 | 13.0 | 0.00 | 0.00 | 0.00 | 73 | 1012.4 |
| 20260503172214 | 60 | 235 | 5.0 | 15.0 | 0.00 | 0.00 | 0.00 | 74 | 1012.4 |
| 20260503172202 | 60 | 236 | 5.0 | 15.0 | 0.00 | 0.00 | 0.00 | 74 | 1012.4 |
| 20260503172101 | 60 | 252 | 5.0 | 15.0 | 0.00 | 0.00 | 0.00 | 73 | 1012.4 |
| 20260503171956 | 59 | 257 | 6.0 | 15.0 | 0.00 | 0.00 | 0.00 | 74 | 1012.4 |
| 20260503171934 | 59 | 222 | 6.0 | 15.0 | 0.00 | 0.00 | 0.00 | 74 | 1012.3 |
| 20260503171856 | 59 | 217 | 6.0 | 15.0 | 0.00 | 0.00 | 0.00 | 74 | 1012.3 |
| 20260503171826 | 59 | 283 | 6.0 | 15.0 | 0.00 | 0.00 | 0.00 | 74 | 1012.3 |
| 20260503171700 | 59 | 231 | 6.0 | 14.0 | 0.00 | 0.00 | 0.00 | 73 | 1012.3 |
| 20260503171656 | 59 | 221 | 6.0 | 15.0 | 0.00 | 0.00 | 0.00 | 74 | 1012.3 |
| 20260503171557 | 59 | 273 | 6.0 | 15.0 | 0.00 | 0.00 | 0.00 | 74 | 1012.4 |
| 20260503171549 | 59 | 238 | 6.0 | 15.0 | 0.00 | 0.00 | 0.00 | 73 | 1012.4 |
| 20260503171353 | 59 | 250 | 6.0 | 15.0 | 0.00 | 0.00 | 0.00 | 73 | 1012.3 |
| 20260503171326 | 59 | 211 | 6.0 | 14.0 | 0.00 | 0.00 | 0.00 | 73 | 1012.3 |
| 20260503171153 | 59 | 230 | 6.0 | 14.0 | 0.00 | 0.00 | 0.00 | 73 | 1012.3 |
| 20260503171053 | 60 | 233 | 5.0 | 14.0 | 0.00 | 0.00 | 0.00 | 73 | 1012.3 |
| 20260503170953 | 60 | 250 | 5.0 | 11.0 | 0.00 | 0.00 | 0.00 | 74 | 1012.3 |
| 20260503170852 | 59 | 143 | 5.0 | 11.0 | 0.00 | 0.00 | 0.00 | 75 | 1012.3 |
| 20260503170752 | 59 | 219 | 5.0 | 12.0 | 0.00 | 0.00 | 0.00 | 74 | 1012.2 |
| 20260503170713 | 59 | 180 | 5.0 | 12.0 | 0.00 | 0.00 | 0.00 | 74 | 1012.2 |
| 20260503170651 | 59 | 197 | 5.0 | 12.0 | 0.00 | 0.00 | 0.00 | 75 | 1012.2 |
| 20260503170550 | 59 | 236 | 5.0 | 12.0 | 0.00 | 0.00 | 0.00 | 75 | 1012.2 |
| 20260503170449 | 59 | 224 | 5.0 | 12.0 | 0.00 | 0.00 | 0.00 | 75 | 1012.1 |
| 20260503170348 | 59 | 253 | 4.0 | 12.0 | 0.00 | 0.00 | 0.00 | 75 | 1012.2 |
| 20260503170249 | 59 | 228 | 4.0 | 12.0 | 0.00 | 0.00 | 0.00 | 75 | 1012.2 |
| 20260503170212 | 59 | 243 | 4.0 | 12.0 | 0.00 | 0.00 | 0.00 | 75 | 1012.1 |
| 20260503170149 | 59 | 161 | 4.0 | 12.0 | 0.00 | 0.00 | 0.00 | 75 | 1012.1 |
| 20260503160139 | 57 | 225 | 4.0 | 10.0 | 0.00 | 0.00 | 0.00 | 79 | 1011.6 |
| 20260503160111 | 57 | 236 | 4.0 | 10.0 | 0.00 | 0.00 | 0.00 | 79 | 1011.6 |
| 20260503150959 | 56 | 205 | 3.0 | 9.0 | 0.00 | 0.00 | 0.00 | 82 | 1011.5 |
| 20260503150941 | 56 | 208 | 4.0 | 9.0 | 0.00 | 0.00 | 0.00 | 82 | 1011.5 |
| 20260503150839 | 56 | 230 | 4.0 | 9.0 | 0.00 | 0.00 | 0.00 | 82 | 1011.4 |
| 20260503150738 | 56 | 235 | 3.0 | 9.0 | 0.00 | 0.00 | 0.00 | 82 | 1011.4 |
| 20260503150636 | 56 | 188 | 3.0 | 9.0 | 0.00 | 0.00 | 0.00 | 82 | 1011.4 |
| 20260503150535 | 56 | 245 | 3.0 | 8.0 | 0.00 | 0.00 | 0.00 | 83 | 1011.5 |
| 20260503150452 | 55 | 194 | 3.0 | 7.0 | 0.00 | 0.00 | 0.00 | 83 | 1011.5 |
| 20260503150432 | 55 | 259 | 3.0 | 7.0 | 0.00 | 0.00 | 0.00 | 83 | 1011.4 |
| 20260503150333 | 55 | 163 | 3.0 | 7.0 | 0.00 | 0.00 | 0.00 | 83 | 1011.4 |
| 20260503150232 | 55 | 257 | 4.0 | 7.0 | 0.00 | 0.00 | 0.00 | 83 | 1011.4 |
| 20260503150215 | 55 | 239 | 4.0 | 8.0 | 0.00 | 0.00 | 0.00 | 83 | 1011.3 |
| 20260503150129 | 55 | 211 | 4.0 | 7.0 | 0.00 | 0.00 | 0.00 | 83 | 1011.4 |
| 20260503140312 | 54 | 226 | 3.0 | 9.0 | 0.00 | 0.00 | 0.00 | 85 | 1010.3 |
| 20260503140112 | 54 | 248 | 3.0 | 9.0 | 0.00 | 0.00 | 0.00 | 85 | 1010.2 |
| 20260503131406 | 54 | 152 | 3.0 | 9.0 | 0.00 | 0.00 | 0.00 | 86 | 1009.9 |
| 20260503131327 | 54 | 203 | 3.0 | 9.0 | 0.00 | 0.00 | 0.00 | 86 | 1009.8 |
| 20260503131229 | 54 | 200 | 3.0 | 9.0 | 0.00 | 0.00 | 0.00 | 86 | 1009.8 |
| 20260503131128 | 54 | 236 | 3.0 | 9.0 | 0.00 | 0.00 | 0.00 | 86 | 1009.8 |
| 20260503131028 | 54 | 246 | 3.0 | 9.0 | 0.00 | 0.00 | 0.00 | 86 | 1009.8 |
| 20260503130928 | 54 | 225 | 3.0 | 8.0 | 0.00 | 0.00 | 0.00 | 86 | 1009.8 |
| 20260503130858 | 54 | 225 | 3.0 | 8.0 | 0.00 | 0.00 | 0.00 | 86 | 1009.8 |
| 20260503130826 | 54 | 193 | 3.0 | 8.0 | 0.00 | 0.00 | 0.00 | 86 | 1009.7 |
| 20260503130726 | 54 | 217 | 3.0 | 8.0 | 0.00 | 0.00 | 0.00 | 86 | 1009.7 |
| 20260503130626 | 54 | 198 | 3.0 | 8.0 | 0.00 | 0.00 | 0.00 | 86 | 1009.7 |
| 20260503130526 | 54 | 193 | 3.0 | 8.0 | 0.00 | 0.00 | 0.00 | 86 | 1009.7 |
| 20260503130424 | 54 | 191 | 3.0 | 8.0 | 0.00 | 0.00 | 0.00 | 86 | 1009.7 |
| 20260503130353 | 54 | 193 | 3.0 | 8.0 | 0.00 | 0.00 | 0.00 | 86 | 1009.7 |
| 20260503130324 | 54 | 235 | 3.0 | 8.0 | 0.00 | 0.00 | 0.00 | 86 | 1009.6 |
| 20260503130224 | 54 | 195 | 3.0 | 8.0 | 0.00 | 0.00 | 0.00 | 86 | 1009.7 |
| 20260503120132 | 54 | 225 | 2.0 | 7.0 | 0.00 | 0.00 | 0.00 | 86 | 1009.5 |
| 20260503110805 | 54 | 250 | 3.0 | 10.0 | 0.00 | 0.00 | 0.00 | 86 | 1009.5 |
| 20260503110744 | 54 | 260 | 3.0 | 8.0 | 0.00 | 0.00 | 0.00 | 86 | 1009.6 |
| 20260503110643 | 54 | 219 | 3.0 | 8.0 | 0.00 | 0.00 | 0.00 | 86 | 1009.6 |
| 20260503110544 | 54 | 214 | 3.0 | 8.0 | 0.00 | 0.00 | 0.00 | 86 | 1009.6 |
| 20260503110443 | 54 | 200 | 3.0 | 8.0 | 0.00 | 0.00 | 0.00 | 86 | 1009.6 |
| 20260503110338 | 54 | 226 | 3.0 | 8.0 | 0.00 | 0.00 | 0.00 | 86 | 1009.6 |
| 20260503110259 | 54 | 218 | 3.0 | 8.0 | 0.00 | 0.00 | 0.00 | 86 | 1009.6 |
| 20260503110238 | 54 | 259 | 3.0 | 8.0 | 0.00 | 0.00 | 0.00 | 86 | 1009.5 |
| 20260503110138 | 54 | 221 | 3.0 | 8.0 | 0.00 | 0.00 | 0.00 | 86 | 1009.6 |
| 20260503100126 | 54 | 230 | 3.0 | 7.0 | 0.00 | 0.00 | 0.00 | 87 | 1009.3 |
| 20260503090420 | 54 | 235 | 3.0 | 8.0 | 0.00 | 0.00 | 0.00 | 87 | 1009.6 |
| 20260503090320 | 54 | 250 | 2.0 | 8.0 | 0.00 | 0.00 | 0.00 | 87 | 1009.7 |
| 20260503090220 | 54 | 219 | 2.0 | 8.0 | 0.00 | 0.00 | 0.00 | 87 | 1009.6 |
| 20260503090210 | 54 | 198 | 2.0 | 8.0 | 0.00 | 0.00 | 0.00 | 87 | 1009.6 |
| 20260503090113 | 54 | 243 | 2.0 | 8.0 | 0.00 | 0.00 | 0.00 | 87 | 1009.7 |
| 20260503081623 | 54 | 232 | 1.0 | 5.0 | 0.00 | 0.00 | 0.00 | 86 | 1010.1 |
| 20260503081517 | 54 | 232 | 1.0 | 5.0 | 0.00 | 0.00 | 0.00 | 86 | 1010.2 |
| 20260503081416 | 54 | 231 | 1.0 | 5.0 | 0.00 | 0.00 | 0.00 | 86 | 1010.2 |
| 20260503081316 | 54 | 248 | 1.0 | 5.0 | 0.00 | 0.00 | 0.00 | 86 | 1010.2 |
| 20260503081215 | 54 | 231 | 1.0 | 4.0 | 0.00 | 0.00 | 0.00 | 86 | 1010.2 |
| 20260503081118 | 54 | 222 | 2.0 | 4.0 | 0.00 | 0.00 | 0.00 | 86 | 1010.2 |
| 20260503081012 | 54 | 222 | 2.0 | 4.0 | 0.00 | 0.00 | 0.00 | 86 | 1010.2 |
| 20260503080911 | 54 | 223 | 2.0 | 4.0 | 0.00 | 0.00 | 0.00 | 86 | 1010.2 |
| 20260503080834 | 55 | 217 | 2.0 | 4.0 | 0.00 | 0.00 | 0.00 | 86 | 1010.2 |
| 20260503080810 | 55 | 203 | 2.0 | 4.0 | 0.00 | 0.00 | 0.00 | 86 | 1010.2 |
| 20260503080729 | 55 | 161 | 2.0 | 4.0 | 0.00 | 0.00 | 0.00 | 86 | 1010.2 |
| 20260503080715 | 55 | 217 | 2.0 | 4.0 | 0.00 | 0.00 | 0.00 | 86 | 1010.2 |
| 20260503080503 | 55 | 243 | 2.0 | 4.0 | 0.00 | 0.00 | 0.00 | 86 | 1010.2 |
| 20260503080404 | 55 | 221 | 2.0 | 4.0 | 0.00 | 0.00 | 0.00 | 86 | 1010.2 |
| 20260503080304 | 54 | 204 | 2.0 | 4.0 | 0.00 | 0.00 | 0.00 | 86 | 1010.2 |
| 20260503080204 | 55 | 238 | 1.0 | 4.0 | 0.00 | 0.00 | 0.00 | 86 | 1010.2 |
| 20260503080116 | 55 | 226 | 1.0 | 4.0 | 0.00 | 0.00 | 0.00 | 86 | 1010.2 |
| 20260503072822 | 55 | 224 | 0.0 | 3.0 | 0.00 | 0.00 | 0.00 | 86 | 1010.3 |
| 20260503072722 | 55 | 224 | 0.0 | 3.0 | 0.00 | 0.00 | 0.00 | 86 | 1010.3 |
| 20260503072622 | 55 | 203 | 1.0 | 3.0 | 0.00 | 0.00 | 0.00 | 86 | 1010.3 |
| 20260503072523 | 55 | 203 | 1.0 | 4.0 | 0.00 | 0.00 | 0.00 | 86 | 1010.3 |
| 20260503072418 | 55 | 203 | 1.0 | 4.0 | 0.00 | 0.00 | 0.00 | 86 | 1010.3 |
| 20260503072316 | 55 | 156 | 1.0 | 6.0 | 0.00 | 0.00 | 0.00 | 85 | 1010.3 |
| 20260503072215 | 55 | 218 | 1.0 | 6.0 | 0.00 | 0.00 | 0.00 | 85 | 1010.3 |
| 20260503072116 | 55 | 224 | 1.0 | 6.0 | 0.00 | 0.00 | 0.00 | 85 | 1010.3 |
| 20260503072017 | 55 | 239 | 1.0 | 6.0 | 0.00 | 0.00 | 0.00 | 85 | 1010.3 |
| 20260503071912 | 55 | 239 | 2.0 | 6.0 | 0.00 | 0.00 | 0.00 | 85 | 1010.4 |
| 20260503071810 | 55 | 239 | 2.0 | 6.0 | 0.00 | 0.00 | 0.00 | 85 | 1010.3 |
| 20260503071734 | 55 | 225 | 2.0 | 6.0 | 0.00 | 0.00 | 0.00 | 85 | 1010.4 |
| 20260503071709 | 55 | 239 | 2.0 | 6.0 | 0.00 | 0.00 | 0.00 | 85 | 1010.4 |
| 20260503071626 | 55 | 150 | 2.0 | 6.0 | 0.00 | 0.00 | 0.00 | 85 | 1010.4 |
| 20260503071616 | 55 | 225 | 2.0 | 6.0 | 0.00 | 0.00 | 0.00 | 85 | 1010.4 |
| 20260503071407 | 55 | 246 | 2.0 | 6.0 | 0.00 | 0.00 | 0.00 | 85 | 1010.3 |
| 20260503071308 | 55 | 229 | 2.0 | 6.0 | 0.00 | 0.00 | 0.00 | 85 | 1010.4 |
| 20260503071208 | 55 | 193 | 2.0 | 6.0 | 0.00 | 0.00 | 0.00 | 85 | 1010.4 |
| 20260503071106 | 55 | 233 | 2.0 | 6.0 | 0.00 | 0.00 | 0.00 | 85 | 1010.4 |
| 20260503071011 | 55 | 240 | 2.0 | 5.0 | 0.00 | 0.00 | 0.00 | 85 | 1010.4 |
| 20260503071001 | 55 | 238 | 2.0 | 5.0 | 0.00 | 0.00 | 0.00 | 85 | 1010.4 |
| 20260503070906 | 55 | 230 | 2.0 | 4.0 | 0.00 | 0.00 | 0.00 | 85 | 1010.4 |
| 20260503070804 | 55 | 212 | 2.0 | 4.0 | 0.00 | 0.00 | 0.00 | 85 | 1010.5 |
| 20260503070739 | 55 | 217 | 2.0 | 4.0 | 0.00 | 0.00 | 0.00 | 85 | 1010.6 |
| 20260503070704 | 55 | 234 | 2.0 | 4.0 | 0.00 | 0.00 | 0.00 | 85 | 1010.5 |
| 20260503070618 | 55 | 235 | 2.0 | 4.0 | 0.00 | 0.00 | 0.00 | 85 | 1010.5 |
| 20260503070501 | 55 | 217 | 2.0 | 4.0 | 0.00 | 0.00 | 0.00 | 85 | 1010.6 |
| 20260503070402 | 55 | 238 | 1.0 | 4.0 | 0.00 | 0.00 | 0.00 | 85 | 1010.5 |
| 20260503070300 | 55 | 232 | 1.0 | 4.0 | 0.00 | 0.00 | 0.00 | 85 | 1010.5 |
| 20260503070200 | 55 | 215 | 1.0 | 4.0 | 0.00 | 0.00 | 0.00 | 85 | 1010.6 |
| 20260503060328 | 56 | 239 | 1.0 | 5.0 | 0.00 | 0.00 | 0.00 | 84 | 1010.6 |
| 20260503060229 | 56 | 207 | 1.0 | 6.0 | 0.00 | 0.00 | 0.00 | 84 | 1010.5 |
| 20260503060128 | 56 | 225 | 1.0 | 6.0 | 0.00 | 0.00 | 0.00 | 84 | 1010.6 |
| 20260503055124 | 56 | 243 | 2.0 | 8.0 | 0.00 | 0.00 | 0.00 | 83 | 1010.7 |
| 20260503055109 | 56 | 239 | 2.0 | 8.0 | 0.00 | 0.00 | 0.00 | 83 | 1010.6 |
| 20260503054916 | 56 | 221 | 2.0 | 8.0 | 0.00 | 0.00 | 0.00 | 83 | 1010.6 |
| 20260503054816 | 56 | 218 | 3.0 | 8.0 | 0.00 | 0.00 | 0.00 | 83 | 1010.6 |
| 20260503054720 | 56 | 252 | 2.0 | 6.0 | 0.00 | 0.00 | 0.00 | 83 | 1010.6 |
| 20260503054712 | 56 | 231 | 3.0 | 8.0 | 0.00 | 0.00 | 0.00 | 83 | 1010.6 |
| 20260503054609 | 56 | 284 | 3.0 | 8.0 | 0.00 | 0.00 | 0.00 | 83 | 1010.6 |
| 20260503054601 | 56 | 210 | 2.0 | 8.0 | 0.00 | 0.00 | 0.00 | 83 | 1010.6 |
| 20260503054410 | 56 | 212 | 3.0 | 8.0 | 0.00 | 0.00 | 0.00 | 83 | 1010.6 |
| 20260503054310 | 56 | 259 | 3.0 | 8.0 | 0.00 | 0.00 | 0.00 | 83 | 1010.6 |
| 20260503054212 | 56 | 263 | 3.0 | 8.0 | 0.00 | 0.00 | 0.00 | 83 | 1010.7 |
| 20260503054204 | 56 | 257 | 3.0 | 8.0 | 0.00 | 0.00 | 0.00 | 83 | 1010.6 |
| 20260503054108 | 56 | 233 | 3.0 | 8.0 | 0.00 | 0.00 | 0.00 | 83 | 1010.6 |
| 20260503054056 | 56 | 217 | 3.0 | 8.0 | 0.00 | 0.00 | 0.00 | 83 | 1010.7 |
| 20260503053904 | 56 | 98 | 3.0 | 8.0 | 0.00 | 0.00 | 0.00 | 83 | 1010.7 |
| 20260503053804 | 56 | 158 | 4.0 | 8.0 | 0.00 | 0.00 | 0.00 | 83 | 1010.7 |
| 20260503053702 | 56 | 170 | 4.0 | 8.0 | 0.00 | 0.00 | 0.00 | 83 | 1010.6 |
| 20260503053602 | 56 | 250 | 4.0 | 8.0 | 0.00 | 0.00 | 0.00 | 83 | 1010.6 |
| 20260503053503 | 56 | 257 | 4.0 | 8.0 | 0.00 | 0.00 | 0.00 | 83 | 1010.6 |
| 20260503053439 | 56 | 248 | 3.0 | 8.0 | 0.00 | 0.00 | 0.00 | 83 | 1010.6 |
| 20260503053401 | 56 | 232 | 3.0 | 8.0 | 0.00 | 0.00 | 0.00 | 83 | 1010.6 |
| 20260503053258 | 56 | 208 | 3.0 | 8.0 | 0.00 | 0.00 | 0.00 | 83 | 1010.6 |
| 20260503053153 | 56 | 273 | 3.0 | 8.0 | 0.00 | 0.00 | 0.00 | 83 | 1010.6 |
| 20260503053132 | 56 | 217 | 2.0 | 10.0 | 0.00 | 0.00 | 0.00 | 83 | 1010.6 |
| 20260503053054 | 56 | 236 | 3.0 | 8.0 | 0.00 | 0.00 | 0.00 | 83 | 1010.6 |
| 20260503053031 | 56 | 232 | 2.0 | 8.0 | 0.00 | 0.00 | 0.00 | 83 | 1010.6 |
| 20260503053020 | 56 | 238 | 2.0 | 8.0 | 0.00 | 0.00 | 0.00 | 83 | 1010.5 |
| 20260503052855 | 56 | 243 | 2.0 | 8.0 | 0.00 | 0.00 | 0.00 | 82 | 1010.5 |
| 20260503052800 | 56 | 240 | 2.0 | 8.0 | 0.00 | 0.00 | 0.00 | 83 | 1010.6 |
| 20260503052646 | 56 | 226 | 2.0 | 10.0 | 0.00 | 0.00 | 0.00 | 83 | 1010.6 |
| 20260503052546 | 56 | 212 | 2.0 | 10.0 | 0.00 | 0.00 | 0.00 | 83 | 1010.7 |
| 20260503052537 | 56 | 217 | 2.0 | 10.0 | 0.00 | 0.00 | 0.00 | 83 | 1010.6 |
| 20260503052346 | 56 | 215 | 2.0 | 10.0 | 0.00 | 0.00 | 0.00 | 83 | 1010.6 |
| 20260503052246 | 56 | 215 | 2.0 | 10.0 | 0.00 | 0.00 | 0.00 | 82 | 1010.6 |
| 20260503052142 | 56 | 233 | 2.0 | 10.0 | 0.00 | 0.00 | 0.00 | 82 | 1010.5 |
| 20260503052040 | 56 | 231 | 2.0 | 10.0 | 0.00 | 0.00 | 0.00 | 82 | 1010.6 |
| 20260503051940 | 56 | 270 | 2.0 | 10.0 | 0.00 | 0.00 | 0.00 | 82 | 1010.6 |
| 20260503051921 | 56 | 271 | 2.0 | 10.0 | 0.00 | 0.00 | 0.00 | 82 | 1010.6 |
| 20260503051840 | 56 | 269 | 2.0 | 10.0 | 0.00 | 0.00 | 0.00 | 82 | 1010.6 |
| 20260503051741 | 56 | 271 | 2.0 | 10.0 | 0.00 | 0.00 | 0.00 | 82 | 1010.6 |
| 20260503051634 | 56 | 266 | 2.0 | 9.0 | 0.00 | 0.00 | 0.00 | 82 | 1010.6 |
| 20260503051535 | 56 | 217 | 2.0 | 9.0 | 0.00 | 0.00 | 0.00 | 82 | 1010.6 |
| 20260503051434 | 56 | 270 | 2.0 | 9.0 | 0.00 | 0.00 | 0.00 | 82 | 1010.6 |
| 20260503051413 | 56 | 228 | 2.0 | 9.0 | 0.00 | 0.00 | 0.00 | 82 | 1010.6 |
| 20260503051334 | 56 | 252 | 2.0 | 8.0 | 0.00 | 0.00 | 0.00 | 82 | 1010.6 |
| 20260503051234 | 56 | 248 | 2.0 | 8.0 | 0.00 | 0.00 | 0.00 | 82 | 1010.6 |
| 20260503051132 | 57 | 200 | 2.0 | 8.0 | 0.00 | 0.00 | 0.00 | 82 | 1010.6 |
| 20260503051035 | 57 | 239 | 2.0 | 8.0 | 0.00 | 0.00 | 0.00 | 82 | 1010.6 |
| 20260503050932 | 57 | 226 | 3.0 | 8.0 | 0.00 | 0.00 | 0.00 | 81 | 1010.6 |
| 20260503050909 | 57 | 219 | 3.0 | 8.0 | 0.00 | 0.00 | 0.00 | 81 | 1010.6 |
| 20260503050829 | 57 | 238 | 3.0 | 8.0 | 0.00 | 0.00 | 0.00 | 81 | 1010.6 |
| 20260503050729 | 57 | 212 | 3.0 | 8.0 | 0.00 | 0.00 | 0.00 | 81 | 1010.6 |
| 20260503050622 | 57 | 219 | 3.0 | 8.0 | 0.00 | 0.00 | 0.00 | 81 | 1010.5 |
| 20260503050522 | 57 | 239 | 2.0 | 8.0 | 0.00 | 0.00 | 0.00 | 81 | 1010.5 |
| 20260503050422 | 57 | 242 | 3.0 | 8.0 | 0.00 | 0.00 | 0.00 | 81 | 1010.5 |
| 20260503050403 | 57 | 236 | 3.0 | 8.0 | 0.00 | 0.00 | 0.00 | 81 | 1010.5 |
| 20260503050322 | 57 | 229 | 3.0 | 8.0 | 0.00 | 0.00 | 0.00 | 81 | 1010.5 |
| 20260503050222 | 57 | 239 | 2.0 | 8.0 | 0.00 | 0.00 | 0.00 | 81 | 1010.5 |
| 20260503050116 | 57 | 296 | 2.0 | 8.0 | 0.00 | 0.00 | 0.00 | 81 | 1010.6 |
| 20260503050016 | 57 | 236 | 3.0 | 8.0 | 0.00 | 0.00 | 0.00 | 81 | 1010.6 |
| 20260503045916 | 57 | 248 | 2.0 | 8.0 | 0.00 | 0.00 | 0.00 | 81 | 1010.5 |
| 20260503045856 | 57 | 192 | 2.0 | 8.0 | 0.00 | 0.00 | 0.00 | 81 | 1010.5 |
| 20260503045816 | 57 | 221 | 2.0 | 8.0 | 0.00 | 0.00 | 0.00 | 81 | 1010.5 |
| 20260503045715 | 57 | 233 | 2.0 | 8.0 | 0.00 | 0.00 | 0.00 | 81 | 1010.5 |
| 20260503045618 | 57 | 218 | 2.0 | 8.0 | 0.00 | 0.00 | 0.00 | 81 | 1010.4 |
| 20260503045611 | 57 | 211 | 2.0 | 8.0 | 0.00 | 0.00 | 0.00 | 81 | 1010.4 |
| 20260503045510 | 57 | 243 | 2.0 | 8.0 | 0.00 | 0.00 | 0.00 | 81 | 1010.4 |
| 20260503045502 | 57 | 248 | 2.0 | 8.0 | 0.00 | 0.00 | 0.00 | 81 | 1010.4 |
| 20260503045311 | 57 | 273 | 2.0 | 8.0 | 0.00 | 0.00 | 0.00 | 81 | 1010.4 |
| 20260503045210 | 57 | 212 | 2.0 | 8.0 | 0.00 | 0.00 | 0.00 | 81 | 1010.4 |
| 20260503045107 | 57 | 248 | 2.0 | 8.0 | 0.00 | 0.00 | 0.00 | 80 | 1010.3 |
| 20260503045006 | 57 | 238 | 3.0 | 13.0 | 0.00 | 0.00 | 0.00 | 80 | 1010.3 |
| 20260503044906 | 57 | 233 | 2.0 | 13.0 | 0.00 | 0.00 | 0.00 | 81 | 1010.4 |
| 20260503044850 | 57 | 236 | 2.0 | 13.0 | 0.00 | 0.00 | 0.00 | 80 | 1010.4 |
| 20260503044836 | 57 | 235 | 3.0 | 13.0 | 0.00 | 0.00 | 0.00 | 80 | 1010.2 |
| 20260503044806 | 57 | 236 | 3.0 | 13.0 | 0.00 | 0.00 | 0.00 | 80 | 1010.3 |
| 20260503044725 | 57 | 235 | 3.0 | 13.0 | 0.00 | 0.00 | 0.00 | 80 | 1010.3 |
| 20260503044600 | 57 | 232 | 3.0 | 13.0 | 0.00 | 0.00 | 0.00 | 80 | 1010.3 |
| 20260503044509 | 57 | 201 | 3.0 | 13.0 | 0.00 | 0.00 | 0.00 | 80 | 1010.3 |
| 20260503044500 | 57 | 239 | 3.0 | 13.0 | 0.00 | 0.00 | 0.00 | 80 | 1010.2 |
| 20260503044258 | 57 | 288 | 4.0 | 13.0 | 0.00 | 0.00 | 0.00 | 80 | 1010.3 |
| 20260503044158 | 57 | 231 | 4.0 | 13.0 | 0.00 | 0.00 | 0.00 | 80 | 1010.2 |
| 20260503044052 | 57 | 217 | 4.0 | 13.0 | 0.00 | 0.00 | 0.00 | 80 | 1010.2 |
| 20260503043952 | 57 | 225 | 3.0 | 11.0 | 0.00 | 0.00 | 0.00 | 80 | 1010.3 |
| 20260503043856 | 57 | 248 | 3.0 | 11.0 | 0.00 | 0.00 | 0.00 | 80 | 1010.2 |
| 20260503043753 | 57 | 245 | 3.0 | 11.0 | 0.00 | 0.00 | 0.00 | 79 | 1010.2 |
| 20260503043652 | 58 | 252 | 3.0 | 11.0 | 0.00 | 0.00 | 0.00 | 79 | 1010.2 |
| 20260503043546 | 58 | 222 | 3.0 | 11.0 | 0.00 | 0.00 | 0.00 | 79 | 1010.2 |
| 20260503043446 | 58 | 248 | 3.0 | 10.0 | 0.00 | 0.00 | 0.00 | 79 | 1010.2 |
| 20260503043352 | 58 | 253 | 3.0 | 10.0 | 0.00 | 0.00 | 0.00 | 79 | 1010.2 |
| 20260503043346 | 58 | 255 | 3.0 | 10.0 | 0.00 | 0.00 | 0.00 | 79 | 1010.2 |
| 20260503043246 | 58 | 197 | 3.0 | 9.0 | 0.00 | 0.00 | 0.00 | 79 | 1010.2 |
| 20260503043146 | 58 | 255 | 4.0 | 12.0 | 0.00 | 0.00 | 0.00 | 79 | 1010.2 |
| 20260503043121 | 58 | 253 | 4.0 | 12.0 | 0.00 | 0.00 | 0.00 | 79 | 1010.2 |
| 20260503043044 | 58 | 224 | 4.0 | 12.0 | 0.00 | 0.00 | 0.00 | 79 | 1010.2 |
| 20260503043002 | 58 | 241 | 4.0 | 12.0 | 0.00 | 0.00 | 0.00 | 79 | 1010.2 |
| 20260503042845 | 58 | 250 | 4.0 | 12.0 | 0.00 | 0.00 | 0.00 | 79 | 1010.2 |
| 20260503042742 | 58 | 243 | 4.0 | 12.0 | 0.00 | 0.00 | 0.00 | 79 | 1010.1 |
| 20260503042642 | 58 | 215 | 4.0 | 12.0 | 0.00 | 0.00 | 0.00 | 79 | 1010.1 |
| 20260503042542 | 58 | 231 | 5.0 | 12.0 | 0.00 | 0.00 | 0.00 | 79 | 1010.1 |
| 20260503042442 | 58 | 240 | 5.0 | 12.0 | 0.00 | 0.00 | 0.00 | 79 | 1010.1 |
| 20260503042350 | 58 | 239 | 5.0 | 12.0 | 0.00 | 0.00 | 0.00 | 79 | 1010.1 |
| 20260503042343 | 58 | 243 | 5.0 | 12.0 | 0.00 | 0.00 | 0.00 | 79 | 1010.2 |
| 20260503042242 | 58 | 271 | 5.0 | 12.0 | 0.00 | 0.00 | 0.00 | 79 | 1010.2 |
| 20260503042142 | 58 | 233 | 5.0 | 12.0 | 0.00 | 0.00 | 0.00 | 79 | 1010.1 |
| 20260503042042 | 58 | 238 | 5.0 | 12.0 | 0.00 | 0.00 | 0.00 | 78 | 1010.1 |
| 20260503041943 | 58 | 238 | 5.0 | 12.0 | 0.00 | 0.00 | 0.00 | 78 | 1010.1 |
| 20260503041847 | 58 | 215 | 5.0 | 12.0 | 0.00 | 0.00 | 0.00 | 78 | 1010.1 |
| 20260503041842 | 58 | 266 | 5.0 | 12.0 | 0.00 | 0.00 | 0.00 | 78 | 1010.1 |
| 20260503041742 | 58 | 239 | 5.0 | 12.0 | 0.00 | 0.00 | 0.00 | 78 | 1010.1 |
| 20260503041642 | 58 | 239 | 4.0 | 12.0 | 0.00 | 0.00 | 0.00 | 78 | 1010.1 |
| 20260503041542 | 58 | 224 | 4.0 | 12.0 | 0.00 | 0.00 | 0.00 | 78 | 1010.1 |
| 20260503041442 | 58 | 251 | 4.0 | 10.0 | 0.00 | 0.00 | 0.00 | 78 | 1010.1 |
| 20260503041348 | 58 | 146 | 4.0 | 8.0 | 0.00 | 0.00 | 0.00 | 78 | 1010.1 |
| 20260503041335 | 58 | 236 | 4.0 | 8.0 | 0.00 | 0.00 | 0.00 | 78 | 1010.1 |
| 20260503041236 | 58 | 221 | 3.0 | 8.0 | 0.00 | 0.00 | 0.00 | 78 | 1010.1 |
| 20260503041136 | 58 | 235 | 3.0 | 8.0 | 0.00 | 0.00 | 0.00 | 78 | 1010.1 |
| 20260503041036 | 58 | 248 | 3.0 | 8.0 | 0.00 | 0.00 | 0.00 | 78 | 1010.1 |
| 20260503040937 | 58 | 207 | 3.0 | 8.0 | 0.00 | 0.00 | 0.00 | 78 | 1010.1 |
| 20260503040850 | 58 | 248 | 3.0 | 8.0 | 0.00 | 0.00 | 0.00 | 78 | 1010.1 |